ECMWFFLT1_925_spd_057.txt.gz
Wind_Speed
8 9 9 9 9 10 10 10 9 9 8 7 7 6 6 6 5 5 4 3 3 3 4 6 6 6 7 8 9 9 9 8 8 8 7 7 4 2 4 5 2 0 4 5 3 2 3 3 4 7 9 10 11 11 11 11 11 11 12 13 13 14 15
9 10 9 9 10 10 10 10 9 9 9 8 8 7 7 6 6 5 5 5 4 4 5 6 6 7 8 9 10 10 10 10 10 11 10 9 8 6 6 6 5 3 4 5 2 2 3 5 4 5 7 8 10 10 10 10 11 11 12 13 14 14 16
9 9 10 10 11 11 11 10 10 9 9 9 8 8 7 7 6 6 6 6 6 6 7 7 7 7 9 10 10 10 10 10 10 11 11 10 10 9 8 7 6 5 4 6 2 1 3 3 3 5 7 7 7 7 7 9 10 11 12 13 14 15 15
9 9 10 11 11 11 11 10 10 10 9 9 9 8 8 8 7 7 7 7 8 8 8 8 7 8 9 9 10 10 11 11 10 10 11 10 9 9 9 8 8 7 6 5 4 5 5 3 3 5 7 7 8 7 6 6 8 10 12 13 14 14 14
10 10 11 11 12 11 11 11 11 11 11 10 9 9 8 8 8 7 7 8 8 8 8 8 8 9 9 9 9 10 11 11 11 11 11 11 10 9 9 8 8 8 8 8 7 5 4 5 6 6 7 7 7 8 8 8 10 11 11 12 13 14 13
11 11 11 12 12 11 11 12 12 12 11 11 10 9 9 8 7 7 8 8 9 9 9 9 9 9 9 9 10 10 11 11 11 11 11 11 11 10 9 9 9 9 9 8 7 7 6 6 6 6 7 8 7 8 9 9 10 11 11 11 12 12 12
11 11 11 11 11 11 12 13 13 13 12 12 11 10 9 9 9 9 9 9 10 10 10 9 9 9 9 10 10 10 10 10 10 10 11 11 11 11 9 9 10 10 10 8 7 6 5 4 5 6 7 7 7 8 9 9 9 9 10 10 10 11 11
12 11 11 11 11 12 13 14 13 13 13 13 12 11 11 10 10 10 10 10 10 10 10 10 10 10 10 10 10 10 10 10 10 10 10 11 11 11 10 10 10 10 10 9 8 7 6 5 6 6 5 4 5 6 6 7 8 8 8 9 10 10 9
12 11 10 11 11 12 13 14 14 14 14 13 13 12 12 11 11 10 10 10 10 10 10 10 10 10 10 10 10 10 10 10 10 10 10 10 10 10 10 10 10 10 10 9 8 8 7 5 5 5 2 2 4 4 4 4 6 7 7 7 8 8 8
13 11 10 11 12 13 13 14 14 14 14 14 14 13 12 11 10 10 10 9 9 9 9 10 10 10 9 10 9 10 10 9 10 10 9 9 9 9 10 10 10 10 10 10 9 8 7 5 5 3 3 3 3 1 4 3 4 5 5 6 7 7 6
13 11 11 11 12 13 14 14 15 15 14 14 14 13 12 11 10 9 9 9 8 8 8 8 9 9 8 8 8 8 8 8 8 8 8 9 9 9 9 9 9 9 9 9 9 9 7 6 5 4 4 4 5 4 3 5 4 4 4 4 6 6 6
13 12 12 12 12 14 14 15 16 15 15 15 14 14 13 12 11 9 8 8 8 7 7 7 7 7 7 7 7 7 6 6 7 7 7 7 7 7 8 8 8 8 8 8 8 8 7 6 5 4 5 4 5 6 4 5 4 3 3 3 4 4 4
12 13 13 12 13 14 15 16 16 16 16 15 14 14 13 12 11 10 9 9 8 7 7 7 7 6 6 6 6 6 5 5 6 6 5 5 5 5 5 6 6 6 6 6 7 7 6 6 6 5 5 5 5 4 4 5 6 5 4 3 3 3 3
13 13 14 14 14 14 15 16 17 17 16 15 15 15 14 13 12 11 10 10 9 8 7 7 6 6 6 5 5 6 5 4 5 5 4 4 4 3 3 4 4 4 4 4 3 3 4 4 4 4 4 4 5 3 4 6 6 6 4 2 2 3 3
13 14 15 15 15 15 15 16 17 17 16 16 15 14 14 13 13 12 11 11 10 9 8 8 7 6 6 6 5 5 4 4 4 4 4 3 3 3 2 2 3 3 3 3 3 3 3 1 1 3 3 3 4 3 3 4 4 5 4 2 2 2 3
14 15 16 16 15 15 15 15 16 17 17 16 15 14 14 13 13 12 12 11 11 10 9 8 7 6 6 6 6 5 5 4 4 4 4 3 4 4 3 2 2 1 2 2 3 4 3 3 3 2 3 3 3 3 3 2 1 1 3 3 2 3 4
14 15 15 15 15 15 16 15 16 17 16 16 16 14 14 14 13 13 12 12 11 10 9 9 7 7 7 7 6 6 5 5 5 5 5 4 4 5 4 3 3 2 1 1 1 2 1 2 3 2 1 1 2 2 2 2 2 2 1 1 1 2 2
13 14 14 14 14 16 16 15 15 15 16 16 16 14 14 14 13 12 12 12 11 10 9 9 8 7 7 7 7 6 6 6 6 7 6 6 5 5 6 5 5 4 3 2 2 1 0 0 1 2 1 2 1 1 1 3 3 2 3 2 2 1 3
14 15 15 15 15 16 16 16 15 14 14 15 15 14 14 14 13 13 12 11 11 11 10 9 8 8 8 8 8 8 8 8 9 9 8 8 8 7 7 7 6 6 6 5 5 4 1 1 1 3 3 4 4 1 1 3 4 3 4 3 3 3 2
15 17 17 17 17 17 16 15 15 14 13 14 14 14 14 14 13 12 12 12 11 10 9 9 8 8 8 8 9 10 10 11 11 11 10 9 8 8 8 8 7 7 7 7 7 6 4 4 4 3 3 6 7 3 2 4 5 4 5 5 5 5 4
16 16 17 16 16 17 16 15 15 14 14 13 14 14 14 14 14 13 13 13 12 10 10 9 8 7 7 8 9 11 12 13 12 12 11 9 8 7 7 7 7 7 8 8 8 8 7 6 6 5 5 5 5 4 3 5 6 5 7 8 7 7 7
16 15 14 14 14 14 15 15 14 14 14 14 13 14 13 11 12 15 16 13 11 9 8 6 6 7 9 9 9 11 12 12 12 11 9 8 7 6 6 6 6 7 8 8 8 8 8 8 8 7 6 6 5 3 3 5 7 6 7 10 9 8 7
14 13 11 11 12 12 12 11 11 11 12 12 11 13 14 9 6 9 12 11 10 8 5 5 8 11 12 10 9 10 11 9 8 7 5 4 4 4 4 4 5 8 9 9 10 11 10 11 11 10 8 8 7 5 4 4 5 4 5 8 9 7 7
10 11 10 9 10 10 10 9 10 9 9 8 8 9 12 10 6 8 8 6 8 7 5 7 9 9 8 7 7 5 5 4 2 1 1 1 1 2 2 2 3 5 6 7 8 10 11 13 14 14 13 12 10 8 6 5 5 5 7 9 8 6 8
9 9 8 7 7 7 7 8 9 8 6 7 7 7 7 8 10 10 9 5 6 6 7 7 6 6 5 5 6 3 1 1 2 3 3 3 2 1 0 1 2 3 4 5 5 4 8 11 14 16 16 15 13 12 10 8 6 5 5 5 6 6 7
10 10 8 7 6 6 6 8 10 9 7 6 6 6 6 7 8 9 7 3 6 6 7 7 7 7 7 6 6 4 2 2 2 4 4 3 3 2 1 1 2 3 4 5 5 3 4 8 11 14 15 14 14 13 11 11 10 8 4 1 3 5 6
9 9 9 10 9 9 9 9 10 10 8 8 7 6 6 5 4 5 6 6 8 7 7 7 8 8 7 7 6 4 2 2 2 4 3 3 3 3 2 2 1 3 2 2 4 5 2 4 5 8 8 8 9 10 9 8 10 10 8 4 3 4 4
8 8 9 10 10 10 9 9 9 9 8 9 10 8 8 8 6 7 9 10 10 8 7 7 7 7 7 6 6 4 2 1 2 3 4 3 3 3 3 3 1 2 3 2 5 6 4 1 2 5 6 6 5 5 6 7 7 7 7 5 3 3 4
10 10 9 9 9 9 9 10 10 10 10 11 11 10 9 9 8 8 8 9 10 9 8 7 6 6 6 6 6 4 2 2 3 3 4 4 4 4 3 3 2 2 3 2 6 6 7 6 5 5 6 6 5 5 7 8 7 7 7 6 6 6 8
9 9 9 9 10 9 10 11 11 11 12 11 11 10 9 8 8 8 8 8 9 8 7 6 5 5 6 6 5 3 2 3 4 4 4 5 6 4 3 3 4 4 3 3 4 7 11 8 4 5 6 5 4 4 5 7 6 6 7 7 8 9 10
7 7 7 9 10 10 10 10 10 10 10 10 9 9 8 8 7 7 7 7 8 7 6 6 5 5 5 5 6 4 3 3 5 4 4 5 6 5 5 7 7 6 5 6 7 10 11 6 2 4 6 5 5 5 4 4 5 6 7 9 9 10 11
5 4 5 7 8 9 9 9 8 8 8 9 9 8 8 8 8 7 6 6 7 7 6 6 6 6 6 6 7 5 4 3 6 4 3 5 6 5 5 6 6 6 6 8 9 9 8 3 2 3 6 5 7 8 5 2 4 6 7 9 10 11 12
5 4 4 6 6 6 7 7 7 7 7 8 9 8 8 8 7 7 6 7 8 7 6 6 7 7 7 7 8 6 5 2 6 5 4 5 6 7 8 6 5 5 5 6 7 7 6 4 1 1 3 4 4 3 2 2 6 10 9 10 10 10 10
3 3 4 5 6 6 6 6 7 7 7 7 7 7 7 6 7 7 7 7 8 7 7 8 7 8 8 7 8 8 4 2 5 6 4 5 6 7 13 11 7 6 5 5 7 7 7 7 4 3 4 4 4 3 4 5 8 11 10 9 10 10 9
3 4 5 5 7 8 8 8 8 8 8 8 8 8 8 7 7 8 8 8 8 9 10 10 9 10 10 8 9 10 5 2 3 3 3 5 6 5 14 12 7 5 6 7 7 7 6 6 6 5 5 5 6 7 7 7 7 9 9 9 9 9 9
7 7 8 8 9 9 10 10 10 11 11 10 10 10 10 9 9 10 9 9 9 10 12 12 11 12 12 10 10 11 9 6 5 3 3 6 2 8 13 9 4 3 6 7 6 6 4 4 5 5 5 5 6 6 6 5 7 8 8 8 8 9 9
10 10 10 10 11 11 12 11 11 11 11 11 11 11 10 10 10 10 10 11 11 11 12 13 13 13 12 11 10 11 12 10 9 7 5 5 0 10 11 5 1 2 6 7 6 5 4 4 4 5 5 6 5 4 3 4 6 6 7 8 8 8 7

ECMWFFLT1_925_spd_060.txt.gz
Wind_Speed
15 15 14 14 14 13 12 11 10 10 9 9 9 9 9 8 8 7 6 5 5 10 12 11 10 10 9 10 10 12 14 15 13 12 10 8 5 5 6 6 5 5 5 4 5 6 5 4 8 14 18 20 20 19 17 15 13 12 12 15 16 16 15
17 16 14 14 14 12 11 11 11 11 11 10 10 10 10 9 9 9 8 8 8 10 12 11 11 11 10 11 12 12 14 15 14 14 13 10 7 6 6 6 7 8 7 8 8 9 8 5 5 6 11 15 16 17 18 18 17 15 13 13 14 15 15
17 16 16 15 13 12 11 11 11 11 11 11 11 11 11 11 11 11 9 9 11 13 12 10 11 12 12 13 13 13 14 14 13 13 12 11 9 8 7 6 9 9 7 7 8 10 9 8 6 6 10 11 9 12 17 18 19 17 15 12 11 11 13
17 18 18 15 13 12 12 12 12 11 11 11 11 12 12 12 12 12 11 10 12 12 11 11 12 12 12 13 14 13 14 14 13 13 13 12 11 11 10 10 10 8 7 9 10 11 10 8 7 6 10 12 10 10 15 18 21 20 17 14 12 11 12
19 19 18 16 14 13 12 13 13 13 12 11 12 12 12 12 12 12 11 12 12 12 11 12 12 12 13 14 14 14 15 15 14 14 14 14 12 11 11 12 12 11 12 14 13 13 14 13 11 8 11 14 10 9 14 17 19 20 19 15 13 11 10
19 18 17 16 15 13 13 13 14 13 12 12 12 12 12 12 12 12 12 12 12 11 11 12 12 12 13 14 14 14 15 14 14 15 15 14 13 13 13 13 12 11 12 13 12 13 15 15 13 10 13 15 12 11 15 17 17 17 18 16 14 12 10
18 17 17 16 15 14 13 14 14 14 13 12 12 12 11 11 12 12 12 12 11 11 12 12 13 14 14 14 14 15 15 15 15 16 15 15 14 14 13 13 12 12 11 9 8 10 12 11 14 14 14 14 13 14 16 18 17 15 15 14 12 11 10
17 17 16 16 15 14 14 14 14 14 14 13 12 12 12 12 13 12 12 12 12 12 12 12 13 14 14 14 14 15 15 14 15 16 16 16 15 15 14 13 13 13 12 11 11 10 10 11 14 14 13 10 7 8 12 14 16 15 15 14 11 9 9
17 16 16 15 15 15 15 15 14 14 14 13 13 13 13 13 13 12 12 11 11 11 11 12 12 13 13 13 14 14 14 13 14 15 15 15 15 15 15 15 14 14 13 13 14 14 13 11 10 7 8 12 8 5 7 8 10 13 16 16 12 9 8
17 16 16 15 15 16 16 15 15 16 15 15 15 14 13 13 13 12 11 10 10 11 11 11 11 12 12 13 13 13 13 13 13 14 14 14 14 15 15 15 15 15 14 14 13 13 13 11 11 12 12 13 9 3 5 4 5 8 12 15 15 12 8
15 16 16 15 16 17 16 16 16 17 17 16 16 15 14 14 12 12 11 11 10 10 9 9 10 10 11 11 11 11 11 11 12 12 13 13 14 14 14 14 14 14 14 13 12 11 12 12 11 12 13 15 14 10 11 6 4 8 10 11 12 12 10
13 16 17 16 17 17 17 17 17 17 18 17 16 16 15 14 13 12 11 10 9 9 8 8 8 8 9 9 9 9 9 9 10 11 10 11 12 12 12 12 11 11 12 12 12 10 11 12 11 10 11 13 16 16 19 13 5 6 10 10 9 8 9
13 15 17 16 17 17 17 18 18 18 18 17 17 17 15 14 14 12 11 10 9 9 8 7 7 7 7 7 7 8 7 7 8 8 8 8 9 9 9 9 10 10 11 10 10 9 10 12 12 12 11 11 14 16 20 18 10 7 9 10 7 6 7
14 14 16 16 17 17 18 18 18 18 18 17 17 17 15 14 13 12 11 10 9 8 7 6 6 6 5 6 6 6 5 6 7 6 6 7 6 6 7 8 9 9 8 7 6 8 8 7 8 10 10 10 12 14 16 19 15 9 8 8 6 6 6
17 14 14 16 17 17 18 18 18 19 17 17 17 16 15 15 13 12 11 10 9 8 7 6 6 5 4 5 5 5 4 5 6 5 4 4 5 5 5 7 8 6 6 5 6 7 6 5 6 9 11 11 12 11 10 14 16 14 11 9 8 6 4
19 15 12 16 18 17 18 19 19 19 18 17 17 16 15 15 14 12 11 10 9 8 7 7 5 5 5 4 4 4 3 4 4 4 2 2 3 4 4 5 6 5 5 6 7 8 5 6 9 10 9 9 10 9 9 9 8 10 12 11 10 10 5
19 17 16 19 19 19 19 19 20 19 18 18 17 15 15 15 13 13 12 11 11 10 9 8 6 6 5 5 4 3 2 2 2 1 0 0 1 4 3 2 4 4 5 5 5 6 4 5 8 7 4 6 8 5 5 7 8 7 7 6 7 9 5
16 16 19 21 20 20 20 20 20 20 18 17 18 15 15 15 14 13 13 12 12 11 10 9 8 6 6 5 4 3 2 0 0 1 3 4 4 3 0 1 2 2 3 4 3 4 4 4 5 4 4 8 9 6 4 5 7 8 7 7 6 5 2
16 16 20 22 21 20 21 20 19 19 18 17 17 16 15 15 14 13 13 12 12 12 11 9 9 7 5 5 3 2 3 5 5 4 4 5 6 7 8 6 3 3 2 2 1 1 3 4 2 1 5 9 8 6 5 4 4 5 5 5 4 2 1
20 21 20 21 18 14 16 19 17 16 17 17 16 16 14 14 14 12 11 9 7 7 8 6 6 8 5 2 2 2 3 4 4 5 5 6 7 7 9 12 10 3 2 2 2 1 1 1 1 2 3 7 7 4 4 5 4 5 5 5 5 5 3
22 22 18 16 13 5 1 7 12 11 12 14 15 15 14 14 14 10 7 5 3 3 4 2 3 7 5 2 2 3 4 5 7 8 7 7 7 6 5 8 11 6 3 2 3 3 2 1 1 2 4 5 3 2 4 5 4 5 6 6 7 8 7
20 18 14 11 12 7 3 3 10 9 10 13 13 14 15 13 13 9 4 5 4 3 4 2 3 3 3 3 4 4 5 6 7 8 6 5 5 4 4 4 5 5 4 2 3 4 5 4 2 1 2 3 1 0 2 3 3 4 5 4 5 7 7
13 13 11 9 13 14 10 11 14 10 11 15 14 13 14 12 11 8 3 3 3 3 4 3 4 4 4 4 5 5 4 3 2 4 3 3 4 4 4 6 4 4 5 4 4 5 6 6 6 5 4 2 2 1 1 2 3 4 4 3 4 5 5
8 7 8 9 11 14 16 17 17 10 9 12 12 10 10 9 8 6 4 3 3 4 7 5 5 6 6 6 5 2 1 3 3 2 2 3 4 5 4 3 3 2 3 3 4 5 6 7 8 9 8 5 4 2 1 1 2 2 3 4 4 4 5
5 5 5 6 7 11 14 16 16 11 8 8 9 11 11 10 8 6 7 8 7 7 9 7 6 6 4 4 4 4 4 3 4 4 4 4 5 5 4 4 5 4 2 1 1 3 3 5 6 8 10 9 7 6 4 2 1 1 3 4 4 5 5
5 5 5 5 6 10 14 16 15 11 9 8 10 13 13 12 9 7 8 8 8 8 9 8 6 4 5 8 8 6 4 4 6 6 5 5 6 6 5 6 7 5 4 3 1 2 1 3 5 5 7 8 8 8 8 6 5 3 2 2 3 6 5
8 8 9 11 12 13 15 16 15 12 9 9 9 10 10 10 9 8 8 8 10 9 7 8 8 7 8 11 9 7 6 7 7 8 8 8 8 7 6 6 7 6 5 5 2 2 1 5 5 2 1 2 2 3 4 5 6 5 4 2 0 2 2
11 12 14 15 15 14 14 15 14 12 10 9 9 8 10 11 10 10 11 11 11 9 8 9 10 9 10 11 9 8 7 8 9 10 10 10 9 9 8 8 8 9 9 8 6 4 3 6 6 6 6 5 5 3 2 2 3 3 3 3 3 3 4
12 13 14 14 13 11 11 12 11 11 10 10 11 12 14 14 13 14 15 14 13 11 10 10 10 11 11 10 9 8 7 8 11 11 9 8 8 8 9 10 8 7 7 7 7 5 4 5 5 5 6 5 4 2 0 1 2 3 3 3 5 5 6
14 13 13 13 12 11 11 11 11 10 11 13 14 15 15 15 15 17 16 13 13 13 12 11 11 11 11 11 10 8 6 9 13 12 8 7 6 7 9 9 8 5 4 5 5 5 6 6 4 4 6 6 2 1 3 2 3 4 5 6 6 7 8
12 14 14 12 11 12 12 13 13 12 12 14 15 14 14 15 17 18 16 13 13 14 13 12 11 11 10 11 12 8 6 11 14 12 9 7 6 7 8 7 5 5 5 5 4 6 9 5 3 2 7 6 2 3 5 4 3 4 5 6 6 9 12
8 9 13 13 11 11 13 14 14 14 13 13 13 13 13 15 17 16 16 15 13 12 13 12 11 11 10 11 12 9 7 11 13 13 14 12 8 8 9 7 5 5 6 6 5 6 7 3 5 4 6 4 1 2 1 2 3 2 3 5 8 13 16
7 5 6 10 9 8 10 12 12 12 13 13 13 12 12 15 17 15 15 15 12 11 12 12 11 11 10 11 13 11 6 8 11 12 15 15 12 11 11 9 7 6 6 6 5 4 3 1 3 5 4 3 4 5 4 2 3 4 6 8 11 13 15
3 3 1 5 6 4 4 8 10 8 8 10 11 13 13 15 18 17 14 13 12 10 11 12 13 13 12 12 14 12 6 5 8 9 11 15 17 15 13 10 9 8 6 4 4 3 3 3 4 4 4 4 4 3 3 5 7 9 10 10 11 12 12
8 6 6 3 1 4 3 4 7 7 7 6 5 8 10 12 15 17 15 13 13 12 11 11 12 13 13 12 13 12 8 5 7 6 4 10 19 18 13 12 12 9 6 4 3 3 4 5 6 6 6 7 8 9 10 11 11 10 9 8 9 11 12
10 7 7 7 7 8 8 5 5 6 7 7 7 7 6 9 10 11 13 15 17 16 13 11 11 12 12 12 11 11 10 6 6 5 5 9 17 17 14 14 13 9 6 4 3 4 5 5 5 6 7 8 9 10 11 11 9 8 6 7 9 11 11
11 10 10 10 10 10 10 9 9 9 9 10 11 11 10 10 10 10 12 14 18 19 16 13 13 12 12 11 11 10 10 8 5 4 7 8 11 13 14 13 10 6 4 3 2 2 3 3 4 5 6 7 8 7 6 5 5 6 5 7 9 9 8

ECMWFFLT1_925_spd_063.txt.gz
Wind_Speed
24 23 25 24 22 21 21 19 17 17 16 14 14 15 13 11 10 8 8 11 12 12 13 13 12 12 12 12 11 10 10 8 9 11 10 8 9 9 8 9 12 14 16 17 16 13 7 3 4 6 9 11 11 11 13 15 15 15 14 13 12 10 9
24 26 27 24 21 21 20 17 16 16 15 14 14 14 12 12 10 11 11 15 16 14 13 13 13 13 13 13 14 13 13 11 11 11 10 8 9 9 10 12 14 14 16 18 19 18 12 7 3 2 7 10 10 11 14 16 16 16 15 13 11 9 9
28 28 27 23 21 20 20 19 18 17 16 16 15 13 13 13 12 14 16 18 17 15 14 14 14 14 13 13 13 13 12 12 11 11 12 11 10 9 10 13 15 16 16 15 16 18 13 9 7 5 8 8 8 11 14 17 17 14 13 12 11 11 12
30 28 26 24 23 23 22 22 20 18 17 18 18 17 16 15 14 16 19 18 17 16 16 15 15 14 13 13 13 12 12 13 13 13 14 15 15 14 11 11 14 15 15 15 17 18 13 10 9 6 8 10 10 12 15 18 18 15 13 13 14 15 15
29 28 27 25 25 24 23 22 20 18 18 18 19 19 17 16 16 17 18 18 17 17 16 14 13 13 13 12 12 12 12 14 15 15 16 17 18 19 17 13 12 13 17 21 21 20 19 19 15 9 10 12 9 10 15 17 17 16 14 13 13 15 15
28 28 27 26 24 23 24 23 21 19 19 18 19 18 17 17 17 18 18 18 18 17 16 15 14 14 14 13 13 13 13 14 15 16 17 17 17 18 20 19 16 13 16 20 21 22 23 23 19 13 13 13 10 11 14 15 15 15 14 12 11 11 12
28 27 26 25 23 24 25 24 22 21 20 20 19 19 18 17 18 19 19 18 18 16 17 17 15 14 14 15 15 15 15 16 17 17 17 16 16 16 17 19 19 17 14 16 20 24 25 23 21 18 14 12 12 14 14 14 16 15 13 12 9 8 10
26 26 25 23 24 25 25 23 23 22 21 20 19 19 18 18 18 19 19 19 19 18 18 17 16 16 17 17 17 17 18 18 18 18 17 16 14 14 15 17 18 19 17 14 16 19 21 22 22 23 19 12 8 8 9 12 15 15 15 14 8 6 8
23 24 24 23 23 23 22 22 23 22 21 20 19 18 18 19 19 20 20 19 18 18 18 17 17 17 17 17 17 18 18 17 18 18 17 16 15 14 14 15 16 17 17 17 15 13 14 18 23 25 22 16 11 6 4 7 8 10 15 14 9 6 8
21 22 22 22 22 21 21 23 23 22 21 19 18 19 19 20 21 21 21 20 19 18 18 17 17 17 17 17 17 17 16 16 17 17 17 16 16 16 15 14 14 14 15 18 18 18 17 16 19 22 20 18 18 12 3 3 4 5 11 12 10 9 7
20 20 20 21 21 21 22 23 23 22 20 19 19 20 20 20 19 19 20 20 20 19 18 17 17 17 17 18 17 16 16 16 17 17 16 16 15 15 15 15 14 14 14 16 18 19 20 17 14 13 14 20 24 20 11 6 3 5 10 10 9 11 10
19 18 18 20 20 20 22 23 23 22 20 19 20 21 20 19 19 19 19 18 18 18 17 17 16 16 17 16 15 14 14 15 16 16 15 14 13 12 13 14 14 14 13 15 19 19 18 16 15 14 12 20 23 24 21 14 5 5 11 10 9 10 11
19 19 18 19 20 20 22 22 22 22 21 20 20 20 19 19 19 19 17 17 18 18 16 15 15 15 15 14 13 14 13 12 13 13 11 11 11 11 13 14 13 12 12 14 16 16 16 16 15 15 13 19 21 21 22 18 9 7 11 12 11 10 11
18 19 18 18 18 19 20 21 21 21 20 20 19 19 19 18 18 17 16 17 18 17 15 14 13 13 14 13 10 11 12 11 11 10 10 11 10 10 11 12 11 10 10 11 11 11 11 11 14 17 16 17 19 16 15 17 15 11 10 11 10 10 11
18 18 18 18 16 17 19 19 19 20 20 20 19 18 18 16 15 15 15 16 16 15 14 14 12 12 13 12 9 9 11 12 11 9 9 10 10 9 9 9 8 8 9 10 10 10 9 9 14 20 20 17 17 14 13 16 17 13 11 11 10 10 11
15 16 17 16 14 14 17 18 17 18 18 18 18 17 16 15 15 14 13 14 14 13 13 13 11 10 11 10 8 10 12 12 10 7 8 9 9 9 9 8 8 8 9 10 10 10 10 11 14 17 18 17 15 12 11 12 14 14 13 11 10 10 9
11 14 15 13 10 11 15 17 16 16 17 17 17 16 15 15 14 13 13 12 12 12 12 11 10 10 11 10 9 9 10 10 8 7 8 10 11 10 10 10 8 8 8 8 9 9 9 11 12 13 13 13 12 12 10 9 12 14 13 12 11 8 5
9 11 11 10 8 8 13 15 14 15 16 16 17 15 15 15 14 13 13 12 11 11 11 10 9 11 11 10 9 8 7 8 7 4 5 8 9 9 9 10 9 9 8 6 7 7 8 10 13 13 11 10 10 12 12 10 11 13 13 14 12 6 4
11 8 7 7 6 7 10 12 12 13 14 16 17 15 15 15 13 12 13 12 12 13 13 13 11 12 10 7 7 6 4 5 5 4 4 4 5 6 6 8 10 10 9 7 5 5 6 9 11 12 11 10 10 10 11 12 12 12 12 12 9 5 4
11 8 6 6 6 6 8 9 11 13 13 16 17 14 14 15 13 12 13 13 14 15 15 14 12 11 10 6 4 3 3 4 5 4 5 5 5 5 6 7 8 8 9 8 5 4 5 5 8 10 9 8 8 9 11 11 11 11 11 10 8 6 4
12 10 8 8 9 9 9 11 13 13 14 15 16 14 14 15 13 12 12 13 13 14 14 13 10 9 9 6 3 2 4 4 4 5 6 7 6 6 7 7 7 8 9 8 6 6 5 4 3 6 8 6 5 7 9 9 9 9 8 7 7 7 6
13 13 10 9 11 11 12 12 11 12 13 15 17 16 15 16 14 13 12 12 12 13 13 12 10 9 8 7 4 3 3 3 3 5 6 6 6 7 7 6 6 7 7 5 5 6 6 5 4 4 6 6 5 6 6 6 6 6 6 6 6 5 6
13 15 14 13 12 11 12 14 12 11 12 12 16 18 17 16 16 14 12 11 11 12 12 11 10 9 8 7 5 3 2 1 0 3 4 5 6 7 7 7 7 7 6 5 5 6 6 6 5 3 2 3 4 5 5 5 5 4 5 7 6 5 7
12 15 17 18 17 15 17 20 20 18 14 12 14 18 18 17 17 15 13 11 11 11 11 11 11 10 8 7 5 4 3 3 5 5 5 6 8 8 8 8 8 8 6 5 5 5 4 4 3 3 3 4 4 4 4 6 6 5 6 7 7 6 7
11 12 16 18 18 18 19 24 27 22 16 13 14 17 18 17 17 15 13 11 10 11 12 13 12 10 8 7 6 7 8 9 10 9 8 8 8 9 10 10 10 8 6 5 5 4 4 2 1 3 3 4 5 4 4 4 5 5 6 7 7 7 7
14 12 13 16 18 18 18 23 24 18 14 15 16 15 16 15 15 13 13 12 11 11 13 14 11 8 8 9 10 11 11 10 10 10 9 8 8 10 12 12 11 10 8 6 5 5 4 4 3 3 4 4 5 5 5 4 4 4 5 5 6 6 5
16 14 13 15 19 19 17 20 19 15 14 16 15 14 13 12 12 12 11 11 11 11 12 11 10 9 11 13 13 11 11 11 11 11 11 11 11 11 13 14 13 11 9 7 7 6 5 5 6 6 6 5 4 4 3 3 3 4 4 3 3 4 3
17 16 16 16 18 19 18 19 18 15 15 15 15 15 12 9 11 12 12 12 12 12 12 11 11 13 15 15 13 13 14 14 14 13 12 11 11 12 14 14 13 12 10 8 8 7 6 6 7 8 8 8 8 6 5 5 4 3 3 2 2 2 2
15 17 18 16 17 18 19 20 18 16 14 13 13 13 13 13 13 12 13 13 13 14 14 14 15 17 17 16 14 15 16 15 14 13 11 10 10 12 13 12 12 12 10 8 8 6 5 5 5 6 7 8 9 8 7 7 6 4 2 2 2 1 2
9 12 15 14 13 14 15 16 15 14 13 13 11 13 16 17 16 15 15 16 15 15 16 16 17 17 17 16 15 14 15 15 14 13 13 11 10 11 12 11 10 10 9 9 9 7 7 7 6 5 5 6 6 6 6 6 4 3 1 1 1 2 4
4 6 9 10 9 8 9 11 13 13 14 14 15 16 18 17 16 16 16 16 15 16 16 16 17 17 17 17 14 12 14 18 18 15 14 13 11 11 11 10 8 7 8 8 8 8 8 8 7 8 6 6 6 6 6 5 3 3 2 2 3 4 8
6 6 7 9 10 9 10 11 12 13 13 14 16 17 17 16 16 16 15 13 14 15 15 16 17 17 18 17 14 13 16 19 18 16 15 14 14 12 11 9 7 6 6 7 7 8 9 7 7 9 8 7 8 8 7 6 4 3 3 4 7 8 10
9 6 7 10 10 11 12 12 12 14 15 15 16 17 17 17 16 14 12 11 12 13 13 15 17 17 17 18 15 13 17 19 18 16 16 15 15 14 12 11 9 7 7 8 7 8 9 7 6 8 8 7 8 7 6 4 2 3 5 8 9 9 9
15 10 4 4 5 6 9 12 12 14 15 16 17 17 19 21 20 17 15 13 12 12 11 12 14 15 16 16 14 13 14 17 18 17 17 16 16 15 14 13 12 10 9 8 7 7 7 6 5 5 4 3 3 3 1 1 4 7 9 9 8 7 7
17 15 12 7 5 3 1 6 11 12 12 13 14 14 17 22 23 21 19 16 13 12 11 11 11 13 13 14 13 12 12 13 16 20 22 20 18 17 17 15 14 12 10 8 7 6 5 5 5 5 3 2 2 3 5 6 8 9 9 6 5 5 6
16 17 16 14 11 9 6 4 4 5 5 6 7 6 11 21 25 23 21 19 16 14 13 12 12 13 12 12 12 13 12 10 11 19 24 23 20 18 18 17 15 13 9 7 5 4 4 4 4 4 3 3 5 5 5 5 4 4 4 3 3 4 5
16 17 17 16 15 13 10 10 9 7 5 6 6 4 7 14 18 19 19 19 18 18 17 16 15 14 14 13 12 12 12 9 7 13 21 23 20 19 19 18 15 12 9 7 6 5 4 3 3 3 2 3 3 2 0 2 3 3 3 4 4 4 5

ECMWFFLT1_925_spd_069.txt.gz
Wind_Speed
20 17 16 15 14 14 14 14 15 14 13 13 13 12 11 11 10 9 9 9 10 9 8 9 9 8 8 8 9 11 11 12 13 15 16 18 17 11 8 8 6 8 13 9 9 10 5 2 6 9 11 12 12 11 11 10 9 8 8 8 7 7 7
18 16 15 15 14 14 15 15 14 14 14 14 13 12 11 10 10 9 10 10 10 10 10 10 9 7 7 7 7 9 10 11 11 13 15 17 16 11 8 10 11 13 11 9 13 15 9 4 4 4 8 14 14 13 11 9 9 9 8 8 8 8 9
18 16 15 14 13 14 14 14 14 14 15 14 13 11 10 10 10 10 10 10 9 9 9 9 8 7 7 6 7 9 9 10 10 11 13 13 12 10 9 15 18 15 11 9 12 15 11 8 6 5 8 11 11 11 10 9 10 9 8 9 9 11 12
19 17 16 14 14 15 15 16 16 16 15 14 12 11 9 10 11 11 9 8 8 8 8 9 8 8 8 9 9 9 9 9 10 10 10 10 10 9 10 16 19 17 11 10 13 15 13 11 8 6 9 12 11 10 9 8 10 10 10 11 11 13 14
20 18 17 17 17 18 19 19 18 17 15 13 12 10 10 12 13 12 10 9 8 8 9 9 9 9 9 10 10 9 9 8 9 10 9 8 9 9 11 14 16 13 10 14 17 15 16 20 17 9 9 12 10 9 9 9 11 13 13 13 13 14 15
22 20 19 20 21 21 22 21 19 17 15 13 11 10 11 14 15 13 11 10 10 10 10 9 9 9 9 10 10 9 9 8 8 10 9 9 7 8 10 12 12 9 8 15 17 15 21 27 23 15 11 11 10 9 9 10 12 12 14 14 14 14 14
23 21 21 22 22 21 20 20 18 17 14 12 11 11 13 16 16 14 12 11 11 10 10 9 9 9 10 11 11 11 11 10 10 10 9 9 8 7 9 10 11 9 9 13 14 17 25 28 25 20 14 11 12 10 7 7 8 8 10 13 13 13 14
23 22 21 21 20 20 19 18 17 15 14 13 12 14 16 17 16 14 13 11 10 10 9 8 8 9 10 11 12 13 13 13 12 12 11 9 8 7 7 9 10 8 8 11 12 17 26 29 27 28 23 13 7 6 5 4 4 5 9 11 12 13 14
23 22 21 20 19 18 17 16 15 15 15 14 13 14 17 17 16 15 13 10 9 8 8 8 8 10 11 11 12 13 14 15 15 15 13 10 9 7 7 7 8 8 8 9 12 19 26 28 27 29 29 21 11 4 3 3 2 4 8 9 9 12 13
23 23 21 20 19 18 16 15 16 16 16 15 14 14 16 17 16 15 13 10 8 7 7 8 10 12 12 12 12 12 13 14 16 17 15 13 11 9 9 8 8 8 9 8 13 22 26 25 26 27 26 25 21 11 3 2 2 5 8 7 7 10 12
23 23 22 20 19 18 17 16 17 17 16 16 15 14 15 16 16 15 12 9 8 8 8 10 12 13 13 13 12 12 12 13 15 17 16 15 14 12 11 11 10 10 9 9 14 23 25 23 25 25 21 22 22 17 10 6 4 6 10 9 7 10 13
24 23 22 21 20 19 18 17 18 17 16 16 15 14 15 15 15 14 11 9 9 10 11 12 12 12 13 13 12 12 12 13 15 16 15 15 14 13 13 12 12 12 12 13 16 22 24 22 23 22 19 18 15 15 18 14 5 7 11 10 10 12 13
24 23 22 22 21 20 19 18 17 17 17 16 15 15 15 15 14 13 11 10 10 10 11 11 12 12 13 12 12 12 13 13 15 15 14 14 14 14 14 13 12 13 14 16 19 22 23 22 22 21 18 16 12 11 17 15 9 9 12 11 12 13 11
23 22 22 22 21 20 18 17 17 17 18 17 16 16 16 15 14 12 10 9 9 9 10 10 11 12 13 12 12 12 11 11 13 13 13 13 13 13 14 13 12 11 13 16 20 22 23 22 21 21 20 18 14 12 14 13 12 12 12 11 12 12 11
22 22 22 21 21 21 19 18 18 18 18 17 16 17 18 17 14 12 11 10 10 10 11 11 11 12 13 13 12 11 9 10 11 11 11 12 11 10 11 12 12 10 11 13 16 19 22 23 22 22 22 21 18 16 15 13 13 14 12 12 13 12 11
22 22 22 22 22 22 21 19 19 19 18 17 16 18 18 17 15 13 12 12 11 11 11 11 11 11 12 12 11 9 8 8 9 10 10 10 9 8 8 9 10 9 10 11 12 13 16 21 24 24 24 23 21 18 16 13 11 14 14 13 13 13 12
22 21 21 22 23 23 22 21 20 19 18 18 19 19 18 17 16 15 14 13 12 11 11 11 10 10 10 10 9 9 8 7 7 7 8 7 6 5 6 8 8 8 9 11 11 11 11 14 20 24 24 22 20 18 16 13 10 13 15 14 12 12 12
21 21 20 21 22 22 22 21 20 20 19 20 22 20 18 18 17 16 15 14 13 12 11 11 10 10 10 9 10 9 8 7 6 5 5 6 5 5 6 8 8 7 8 10 12 12 11 10 13 17 20 19 19 17 15 13 12 13 16 15 12 10 9
21 21 21 21 21 23 23 21 20 20 20 21 21 20 19 19 17 17 16 15 14 13 12 12 13 12 10 11 12 11 9 8 6 5 5 5 5 5 5 7 7 6 6 9 11 11 12 12 12 14 17 17 17 15 13 13 13 14 16 16 13 11 10
21 21 22 21 19 21 23 22 21 21 22 22 21 20 20 19 18 17 18 17 16 15 14 14 15 14 11 11 13 12 10 9 8 6 6 6 6 5 5 5 5 5 5 6 8 9 10 11 12 13 14 14 14 12 12 12 13 15 17 16 14 14 14
21 20 20 19 18 21 24 24 22 22 23 22 21 21 21 19 18 18 18 18 17 16 16 16 16 16 14 13 14 13 11 10 9 8 7 7 8 7 6 6 5 5 5 5 5 6 7 9 10 11 11 11 11 12 12 12 13 15 16 15 15 15 16
23 21 21 22 23 25 26 25 24 23 23 22 21 22 21 20 18 18 18 19 19 18 18 18 18 18 17 16 16 15 13 12 11 11 10 10 10 10 9 8 8 7 7 6 6 6 6 7 8 10 11 11 11 11 12 12 13 14 15 15 15 15 16
23 22 22 23 25 26 26 24 23 23 22 23 23 23 23 20 18 18 19 19 20 20 21 21 20 20 19 18 18 16 15 14 13 12 12 11 11 12 12 11 11 10 9 8 9 8 8 7 6 7 9 9 10 11 12 12 12 13 14 14 15 16 16
23 21 20 21 22 24 24 22 23 23 22 23 24 23 22 20 18 19 20 20 21 22 23 24 23 22 22 21 19 18 17 16 14 13 13 13 13 14 15 14 12 11 11 11 11 10 9 9 8 8 8 8 8 8 10 11 12 12 12 13 14 14 14
23 22 21 21 21 22 22 20 21 23 22 23 23 22 20 19 19 20 21 22 23 24 24 25 24 24 23 22 20 18 18 17 15 14 14 14 15 16 16 15 14 13 12 13 13 12 11 11 10 9 9 8 7 7 7 8 9 9 9 10 11 11 11
19 20 21 22 22 21 21 20 19 20 22 23 22 23 22 21 20 22 23 24 25 25 25 25 25 25 24 22 20 19 18 16 15 14 14 14 15 16 16 15 15 15 14 14 14 13 12 12 11 10 10 9 9 8 7 7 6 6 6 7 9 9 9
12 13 15 18 20 20 21 21 20 20 22 23 22 24 25 25 24 25 25 26 27 27 26 26 26 25 24 22 21 19 18 16 14 14 14 14 14 15 15 16 17 16 15 14 14 13 12 11 11 10 10 10 10 9 8 7 6 6 5 4 6 8 9
6 7 9 11 14 15 17 19 20 21 22 22 21 22 23 24 25 26 26 27 28 28 27 26 26 26 25 24 22 20 17 16 15 14 14 15 15 15 15 17 17 17 16 14 12 11 10 10 10 11 11 10 10 9 8 7 6 6 6 6 6 7 8
1 2 4 6 8 11 13 14 16 18 20 21 20 19 16 15 18 21 24 26 28 29 28 28 27 26 25 24 22 19 17 16 16 16 15 16 16 15 16 18 17 17 15 13 11 10 8 9 10 11 11 11 10 10 10 9 9 9 8 8 8 8 7
4 3 2 1 3 7 10 11 12 14 16 18 20 20 16 14 16 19 21 24 27 27 26 27 27 26 25 24 21 20 19 18 18 17 16 17 16 16 17 18 17 16 15 13 11 9 8 8 10 12 13 13 13 12 12 12 11 11 10 9 8 7 5
8 6 4 3 3 3 6 9 11 11 12 14 17 19 18 18 19 20 21 23 25 23 21 22 24 25 24 23 21 20 20 20 20 19 18 18 17 17 18 18 17 16 14 13 12 10 9 9 11 13 14 14 15 14 13 13 12 11 10 9 7 6 4
18 14 11 8 5 4 3 6 8 9 10 11 12 13 15 16 16 17 18 21 21 21 20 21 23 24 24 23 22 22 23 23 22 20 19 19 19 19 18 19 18 16 14 13 12 11 11 11 12 12 13 14 15 14 13 12 12 11 10 9 7 5 4
23 21 19 16 14 10 5 2 6 8 9 10 10 11 12 14 14 15 17 18 19 20 21 22 23 24 24 24 24 24 25 25 25 23 20 19 20 20 20 20 19 18 16 14 13 13 13 13 12 12 12 13 13 14 14 13 12 11 9 8 7 6 5
22 22 20 18 17 16 13 8 3 2 5 7 9 11 12 13 13 14 15 18 20 20 19 20 21 23 23 24 25 25 25 26 26 24 21 20 21 23 22 22 21 20 18 16 15 15 15 14 13 12 12 11 11 12 13 13 13 11 9 8 7 6 6
21 21 20 18 16 16 15 14 11 8 5 5 5 7 7 8 9 11 12 15 18 18 17 16 18 20 21 21 22 23 25 26 26 24 22 22 22 23 23 22 22 20 19 18 16 15 15 16 15 13 12 11 11 12 13 13 12 10 9 8 8 8 7
20 20 20 18 17 15 14 13 13 12 11 10 10 10 10 8 7 7 9 12 14 15 15 16 16 17 19 19 19 20 23 24 24 22 22 22 22 23 23 23 22 21 19 18 17 16 16 16 16 15 14 13 13 13 12 12 11 10 9 10 10 9 8
19 19 18 17 17 16 15 13 13 13 12 12 11 11 12 11 9 5 4 8 11 12 14 14 15 16 17 18 18 18 20 23 23 22 22 22 22 23 24 24 23 21 19 18 17 17 17 17 16 15 14 13 12 11 11 10 10 11 11 12 11 10 9

ECMWFFLT1_925_spd_072.txt.gz
Wind_Speed
17 16 16 15 14 14 13 12 12 12 11 11 11 12 12 11 10 9 9 8 8 8 7 8 9 8 8 8 9 10 11 14 14 14 16 14 15 14 8 5 3 3 9 10 11 11 6 3 8 12 14 16 16 14 13 13 13 13 13 12 11 10 10
17 17 16 16 15 14 14 14 14 14 13 12 11 11 10 8 8 7 7 6 6 6 5 6 8 8 8 9 10 11 12 14 14 13 15 15 17 16 9 4 5 8 10 10 14 16 10 5 4 6 11 15 15 13 13 12 13 13 12 11 12 13 14
18 18 16 15 15 15 16 16 14 14 12 11 10 9 8 7 7 7 6 6 5 5 5 6 7 7 8 9 10 11 11 12 13 13 13 14 16 15 10 7 10 13 12 10 14 17 12 8 6 6 10 11 10 11 12 11 11 12 12 13 15 16 17
20 20 18 17 17 17 18 16 14 13 13 12 11 10 9 8 8 7 6 6 5 5 5 6 7 7 7 8 9 10 11 11 11 11 11 12 14 14 11 10 12 15 12 10 16 19 15 11 8 8 10 11 9 9 10 11 12 13 14 15 17 18 19
21 21 20 19 19 19 18 16 15 14 14 13 12 11 10 10 9 9 7 6 5 5 6 6 6 6 6 7 8 8 9 9 8 8 9 11 12 13 11 10 13 13 9 12 20 21 19 19 15 10 9 10 9 8 10 12 13 14 15 16 18 18 19
20 20 19 18 17 18 18 17 17 16 15 14 12 11 10 11 11 10 8 7 6 5 6 5 5 5 6 6 6 6 6 7 7 6 7 9 10 10 10 11 13 9 6 13 19 20 23 25 20 14 10 9 9 8 9 11 12 13 15 16 17 18 18
19 20 18 16 16 17 17 18 17 17 16 15 13 11 10 11 12 10 8 7 6 6 6 6 6 6 5 5 5 4 4 5 6 7 6 7 8 8 9 11 12 7 7 14 18 21 27 26 23 20 14 9 9 9 7 8 9 10 11 14 16 16 17
20 19 17 15 15 17 18 19 18 17 16 14 13 12 12 13 13 10 8 7 7 7 7 7 7 6 6 6 6 5 4 5 5 6 6 5 6 7 7 10 10 6 9 15 16 21 26 27 27 29 25 13 5 5 4 4 6 8 11 13 14 15 17
20 19 16 15 16 17 18 19 18 17 15 13 12 12 13 14 13 11 8 8 7 7 7 6 6 6 6 7 7 6 5 6 6 6 5 5 5 7 7 8 8 7 10 13 16 20 25 26 28 31 30 22 11 3 1 2 3 6 11 12 12 14 17
20 18 17 18 18 18 18 18 17 16 13 11 11 12 14 15 13 11 9 8 8 7 6 5 6 7 7 7 7 7 7 7 6 6 5 4 5 7 8 8 7 8 10 12 16 21 24 25 27 27 26 25 21 10 1 1 2 4 10 12 10 13 17
20 19 19 19 20 19 18 17 16 15 13 11 11 12 15 15 13 11 10 8 8 7 6 6 7 8 8 8 8 8 8 8 7 6 4 4 6 8 10 10 9 9 11 12 16 21 23 24 26 24 20 22 23 17 9 6 3 5 11 11 10 15 18
21 20 20 20 20 19 18 17 16 15 14 12 11 12 14 14 13 12 10 9 7 7 7 8 9 10 10 9 9 9 9 9 8 8 6 4 6 9 10 11 10 10 10 12 16 21 23 24 23 20 19 18 17 18 19 13 4 6 12 10 11 16 18
22 21 21 20 19 18 17 16 16 15 15 13 12 12 13 13 13 12 11 9 7 9 11 11 11 11 11 10 9 10 10 9 9 9 7 5 5 8 10 10 10 10 11 14 18 21 22 23 21 18 17 15 11 14 21 17 9 8 11 10 12 17 17
23 22 21 20 19 17 16 15 15 15 15 14 13 12 12 13 14 13 11 9 9 11 13 13 13 12 11 10 11 11 11 10 10 9 8 6 5 7 8 9 8 9 11 14 18 21 20 21 20 17 15 12 9 12 17 16 14 12 11 9 12 16 17
23 22 21 20 19 18 17 16 15 15 15 14 13 13 13 13 14 13 11 10 10 11 12 13 13 12 10 11 11 11 10 10 10 9 9 8 7 6 7 8 8 8 10 13 17 20 20 20 20 18 16 13 10 11 13 15 16 14 11 10 12 15 15
23 22 22 21 20 19 18 16 15 15 16 15 14 13 13 14 14 13 11 11 11 11 12 12 12 12 10 10 10 9 8 9 9 8 7 7 7 6 6 7 8 8 9 11 15 18 19 19 19 19 19 16 13 11 11 13 16 16 14 12 12 14 15
23 23 22 21 20 19 18 16 15 15 16 16 14 14 15 15 14 13 12 12 12 12 12 12 12 12 11 10 8 7 7 7 7 7 6 5 5 4 4 5 5 5 7 9 13 17 20 20 20 20 20 19 17 14 11 11 13 16 18 15 12 13 14
22 22 21 20 19 19 18 16 15 15 16 15 15 15 16 16 14 13 13 13 12 12 12 12 12 11 10 9 7 5 5 6 6 5 5 4 3 2 2 3 4 3 4 7 10 13 17 20 22 23 22 20 18 16 14 13 12 14 19 18 15 13 13
21 21 20 19 18 18 18 16 15 15 15 15 15 16 17 16 15 14 14 13 12 12 12 11 11 10 9 8 6 5 5 6 6 5 4 3 3 2 2 3 4 3 3 5 8 9 11 12 15 18 20 19 17 16 15 15 13 14 18 19 16 14 13
19 20 20 19 18 18 17 16 15 15 15 15 15 16 16 15 15 15 14 13 13 12 11 11 10 9 8 6 6 7 7 6 6 6 5 5 4 3 2 3 3 3 2 3 6 8 8 8 7 9 12 15 16 16 16 16 13 14 17 18 15 15 14
15 18 19 19 18 18 18 18 17 17 16 15 16 18 16 14 15 15 14 14 13 12 11 11 10 10 9 7 7 8 8 7 6 6 5 5 6 4 3 4 3 3 2 2 3 5 6 7 7 7 9 12 16 17 17 16 13 14 17 17 15 15 16
12 13 15 16 16 15 15 17 18 18 16 16 17 18 16 15 15 15 15 15 14 13 12 11 10 9 9 8 8 8 9 8 7 6 6 6 6 6 5 5 5 5 5 4 4 4 4 5 6 8 10 13 15 16 16 15 15 16 18 17 16 16 16
14 12 12 13 12 10 11 15 18 19 17 17 17 17 16 16 16 16 16 17 17 16 14 13 11 10 9 8 8 9 10 11 10 9 8 8 8 8 8 8 8 8 8 7 7 6 6 6 6 7 9 10 11 13 14 15 17 18 19 18 18 18 18
16 17 16 16 15 15 14 14 15 17 18 18 18 17 17 18 18 18 18 18 18 17 16 14 12 11 11 10 11 12 13 13 13 12 11 11 10 10 10 11 11 11 11 10 10 10 9 8 7 7 8 9 8 8 10 13 17 19 19 19 19 19 20
14 14 15 17 18 17 15 13 13 14 16 18 20 19 18 19 19 19 18 19 19 18 16 15 14 13 13 13 14 15 15 16 15 15 14 13 12 12 13 13 14 14 14 13 13 13 12 11 10 9 10 11 10 8 8 9 12 16 18 18 19 19 19
10 9 9 11 13 13 13 13 12 12 12 15 18 18 18 17 16 16 17 18 18 16 16 16 15 15 15 15 17 18 18 18 17 16 16 15 15 15 15 15 15 15 14 14 15 15 15 13 13 12 12 12 12 12 10 9 9 10 12 14 17 18 17
7 4 5 8 10 11 12 12 11 11 11 12 14 15 16 16 16 16 16 16 16 16 16 17 16 16 16 17 19 20 21 20 19 18 17 16 16 16 16 15 15 15 15 15 16 16 16 16 15 15 13 12 12 12 12 11 10 9 9 9 12 15 15
3 2 4 8 8 8 10 11 11 12 12 12 12 13 14 16 17 18 17 17 16 17 18 19 18 18 18 18 20 22 23 22 21 19 18 17 17 16 15 15 14 14 15 16 16 16 16 16 16 15 13 11 11 11 11 11 10 10 10 10 10 13 15
9 6 1 3 4 5 7 9 10 11 12 12 13 13 14 15 16 17 18 19 19 19 20 21 21 20 19 19 21 23 25 24 23 21 20 19 18 16 14 14 14 15 16 17 16 15 14 15 15 14 14 13 12 11 11 11 10 10 11 12 12 13 14
13 10 7 5 4 3 3 5 7 9 10 11 12 13 15 15 15 15 16 17 17 17 18 19 21 20 20 21 23 25 26 25 24 23 21 20 19 17 15 14 14 15 17 18 17 15 13 13 14 14 15 15 14 14 14 14 13 12 12 12 13 12 11
17 15 12 9 7 5 4 3 3 5 6 7 9 11 13 14 15 15 15 16 16 16 17 17 18 18 19 21 23 25 25 25 24 23 22 20 19 17 15 15 15 16 18 18 17 15 14 13 14 16 17 18 18 18 18 17 16 15 14 13 13 12 10
23 21 19 16 12 9 6 4 2 2 3 5 6 7 9 11 11 12 13 13 13 14 15 15 16 17 18 20 22 23 24 24 24 23 22 21 20 18 17 17 17 17 18 17 16 15 14 13 15 17 18 20 21 21 20 18 17 16 16 14 13 11 9
24 23 22 20 18 15 12 8 6 3 2 3 4 5 7 8 9 9 10 10 11 12 12 12 14 18 20 22 23 23 24 24 23 23 23 23 22 21 20 19 19 19 18 17 16 15 14 13 14 16 17 18 20 21 21 18 16 15 14 13 12 9 8
22 21 20 19 19 18 17 14 12 10 8 5 3 3 4 5 6 7 8 8 10 11 11 12 14 17 19 21 21 22 22 21 20 23 24 23 23 23 23 22 21 20 19 18 17 16 14 13 13 14 14 14 15 18 20 19 16 14 13 12 10 9 8
20 19 18 17 16 16 16 15 14 13 11 10 8 7 6 5 5 5 5 7 8 9 10 11 13 15 17 19 20 21 21 19 20 24 23 21 22 25 25 23 22 22 21 19 18 17 15 15 14 13 13 13 14 16 18 17 16 14 13 11 10 9 9
19 19 18 16 15 14 14 13 13 13 12 11 11 10 10 10 9 8 7 7 7 9 9 10 11 13 16 18 19 20 21 20 21 23 22 21 23 26 25 22 21 22 22 20 19 17 16 16 16 15 14 14 15 16 17 17 16 14 12 11 11 12 12
19 19 18 17 16 15 14 13 11 11 11 11 10 11 11 11 11 11 11 10 9 10 10 10 10 11 13 14 16 17 19 19 20 21 21 21 22 24 23 22 21 22 22 21 20 19 17 18 18 16 16 16 16 17 18 17 15 14 13 14 14 14 14

ECMWFFLT1_925_spd_075.txt.gz
Wind_Speed
14 13 11 10 10 10 11 11 11 12 12 11 11 11 11 11 10 10 10 10 9 8 8 8 8 8 8 8 9 9 8 8 8 6 8 9 8 6 4 2 2 4 6 6 6 8 7 6 7 9 11 13 13 12 11 11 11 11 11 11 12 13 15
12 12 11 12 13 13 14 13 13 13 13 12 12 12 12 11 11 10 10 9 8 8 7 7 8 8 8 8 8 8 8 8 8 6 6 6 6 7 6 4 4 6 6 5 7 9 9 8 6 8 11 12 10 10 11 11 10 10 10 10 11 13 15
15 14 12 13 15 15 15 15 15 15 14 14 13 13 12 11 10 9 9 8 7 6 6 6 7 7 7 7 7 7 7 7 7 7 6 5 6 7 8 7 6 7 7 6 8 9 9 8 8 9 11 11 8 7 9 11 10 9 9 9 11 13 15
21 18 13 14 15 16 17 17 17 16 15 15 14 13 11 10 9 9 8 7 6 5 5 5 6 6 5 6 6 6 6 7 7 7 7 5 6 7 8 7 6 7 7 7 10 10 9 10 10 9 10 12 10 7 8 10 11 11 10 10 11 14 16
22 20 16 16 18 18 19 19 18 16 15 14 14 12 11 10 9 8 7 6 5 4 5 4 4 4 4 4 5 5 6 6 7 7 7 7 6 7 8 8 6 6 6 6 10 10 9 12 13 10 10 11 9 7 7 10 12 13 13 13 13 16 18
21 21 21 20 21 21 21 20 18 16 15 13 13 12 10 10 9 7 6 4 4 4 4 4 4 4 4 4 4 5 5 5 5 5 5 6 6 7 8 8 7 6 6 7 11 11 10 13 13 12 12 11 9 7 7 8 11 12 13 14 15 16 19
21 22 23 22 22 23 21 20 18 16 14 12 12 11 10 9 8 7 6 5 4 4 4 5 6 6 6 6 6 6 5 5 5 4 3 3 5 6 7 7 8 7 6 9 12 13 13 14 14 15 14 12 11 10 8 7 9 10 10 12 14 16 19
21 21 22 22 23 22 20 18 17 14 12 12 12 11 10 10 9 8 7 6 5 5 6 6 7 7 7 7 6 6 5 5 5 5 4 3 4 6 7 9 9 7 7 11 13 13 14 14 16 18 17 13 10 10 9 8 8 9 10 11 11 13 19
21 22 22 22 22 20 18 17 16 13 12 13 12 10 10 11 10 9 8 7 7 7 7 7 6 6 6 6 6 6 6 6 7 6 6 5 5 6 7 9 9 7 9 12 13 13 14 14 16 17 17 16 12 9 8 7 8 9 10 10 9 11 16
22 23 22 21 20 19 17 16 15 14 13 13 11 10 11 12 12 11 10 9 8 8 7 6 6 5 6 6 6 6 7 8 9 8 7 6 6 7 8 9 8 8 11 13 13 15 17 18 18 16 11 12 13 11 7 6 7 8 9 9 9 11 14
22 22 20 19 19 18 17 16 15 14 14 12 10 10 12 13 13 11 10 10 9 8 7 6 6 6 6 6 6 7 8 9 9 8 7 7 7 9 9 9 9 10 12 13 14 17 20 21 21 17 11 9 10 10 10 8 6 7 9 8 8 12 15
22 21 19 18 18 18 17 16 15 14 13 11 10 12 14 15 13 11 10 9 9 8 7 8 8 7 6 6 6 7 8 8 7 6 6 7 9 10 10 10 11 11 12 13 15 17 20 22 21 16 13 12 9 10 12 12 7 6 8 8 8 12 15
22 20 19 18 18 19 18 17 16 15 13 12 11 13 15 15 13 11 10 9 8 9 9 10 10 8 7 6 6 7 7 7 7 6 6 8 10 11 12 12 12 11 12 13 15 18 20 22 19 14 12 12 12 13 13 11 10 8 7 9 11 12 16
22 21 20 19 19 19 19 18 17 15 14 12 12 13 15 15 13 11 9 8 9 10 11 12 11 9 8 7 7 7 7 7 7 6 7 7 9 10 11 12 11 11 12 14 16 17 19 21 18 14 12 9 11 15 13 10 13 12 9 11 12 13 17
23 22 21 20 20 20 19 18 17 15 14 13 12 12 14 14 13 11 9 9 10 12 13 12 11 9 8 8 8 8 7 7 7 7 7 8 8 7 9 11 10 10 12 14 16 16 18 20 17 13 12 8 9 15 13 10 13 14 11 12 14 15 18
23 22 22 21 20 19 18 17 16 15 14 14 12 12 12 12 13 11 10 10 12 13 13 12 11 9 8 9 9 8 7 7 7 7 7 8 8 7 7 8 9 9 11 13 15 16 18 20 16 12 11 9 9 13 14 12 14 14 13 13 14 15 17
23 23 23 21 20 19 17 17 16 15 15 14 13 12 11 12 12 12 11 11 12 13 13 12 11 10 9 9 9 8 7 7 7 7 6 6 7 6 6 6 6 7 10 12 15 16 18 19 17 13 13 11 10 12 14 14 14 14 14 14 13 13 15
22 23 22 21 20 18 17 16 16 15 15 14 14 13 12 12 13 12 11 11 12 13 13 13 12 11 11 9 8 7 7 7 6 6 5 5 5 4 3 4 4 4 6 9 13 16 17 19 18 15 14 13 12 12 13 14 13 14 15 15 14 13 14
21 21 21 21 20 18 17 16 15 15 15 14 14 13 12 13 13 12 11 12 13 14 14 14 13 12 12 10 8 6 6 6 6 5 5 4 4 4 3 3 3 3 3 5 8 11 15 18 19 18 17 15 14 15 15 15 14 15 15 15 15 14 14
18 18 19 20 19 18 16 15 14 14 14 14 13 12 12 14 13 12 12 13 14 14 14 14 13 12 11 10 8 7 7 6 5 5 4 4 4 4 4 4 4 4 4 4 4 6 9 13 15 17 19 18 17 17 18 16 15 15 14 14 14 14 14
14 14 15 17 18 17 16 15 14 13 13 13 12 12 13 14 14 12 12 13 13 13 13 13 12 12 11 9 8 8 8 7 6 6 5 4 4 4 3 4 4 5 5 5 5 6 7 8 10 11 14 16 16 17 18 17 15 15 14 14 14 13 13
12 12 12 12 13 14 15 15 14 13 12 11 11 11 13 14 14 13 13 12 11 12 12 12 12 11 11 10 9 9 9 8 7 7 6 5 5 5 4 4 5 5 5 5 5 6 7 8 8 8 9 11 14 16 17 16 15 14 14 14 14 13 13
14 12 11 9 9 10 9 10 11 11 11 10 10 11 13 13 12 12 12 11 11 12 12 11 10 10 11 10 9 10 11 10 9 8 7 6 6 6 6 7 7 7 7 7 7 7 7 8 8 8 8 8 12 16 18 17 15 14 15 15 14 15 14
13 12 10 9 8 7 3 2 4 7 10 10 10 12 14 14 12 12 12 11 11 12 12 11 10 10 10 10 10 10 11 11 11 10 9 8 7 8 9 9 9 10 10 10 10 9 9 9 9 9 9 9 12 15 18 19 18 17 16 14 15 16 15
9 9 9 7 6 4 3 5 4 4 7 9 11 12 14 14 13 12 12 11 11 11 12 12 11 11 11 11 12 12 12 11 11 12 11 10 10 10 11 12 12 12 12 12 12 12 12 11 11 11 11 12 13 14 17 18 19 20 19 16 16 16 14
8 7 7 8 8 8 9 9 8 6 7 9 11 12 12 12 11 11 11 11 11 11 11 12 11 12 12 12 13 14 14 13 13 13 14 13 13 13 13 14 13 13 14 14 14 15 15 15 14 14 13 14 15 15 15 16 16 17 18 19 19 19 17
9 9 8 7 7 8 8 7 5 5 6 7 8 9 9 8 8 9 9 9 10 10 10 11 11 11 12 12 14 15 16 16 16 16 16 16 15 15 15 15 14 15 15 15 15 17 18 18 17 16 16 16 15 15 15 15 15 15 16 19 21 21 20
10 9 8 7 7 6 5 4 3 4 4 4 5 5 4 4 5 5 6 7 8 9 10 11 12 12 11 11 13 16 18 19 19 19 19 18 17 17 17 16 15 15 16 16 16 18 20 20 19 18 17 16 15 15 14 14 15 15 15 16 18 19 20
13 11 9 8 7 6 5 4 3 2 2 2 2 1 2 2 3 4 5 6 7 9 10 11 12 12 11 11 12 15 18 20 20 21 21 20 19 18 18 16 15 15 16 17 17 18 20 21 20 19 18 17 16 15 14 13 14 14 14 14 15 16 18
16 13 12 10 9 8 6 5 3 2 1 1 1 2 3 3 4 5 6 7 8 9 10 10 10 10 10 10 10 13 16 18 20 21 21 20 20 19 18 17 16 16 17 17 17 18 20 21 20 20 19 17 16 15 14 14 13 12 13 14 15 17 18
19 16 14 12 10 8 6 6 5 4 2 1 0 1 2 3 3 5 6 6 7 9 10 11 11 11 11 10 10 11 12 14 16 19 20 19 19 18 18 18 17 17 18 18 18 20 21 21 21 21 21 19 17 16 16 16 16 16 16 16 18 18 18
23 22 19 16 14 11 9 8 7 6 5 5 4 4 3 2 2 3 4 5 6 7 7 9 9 10 10 11 12 12 11 10 12 16 17 16 16 17 18 17 17 18 18 18 19 21 22 23 22 21 21 20 19 19 20 20 20 20 20 20 20 19 18
23 23 22 20 19 17 15 13 11 10 9 8 7 7 6 5 5 4 4 5 5 5 6 8 9 9 10 11 12 13 12 10 11 15 15 14 15 17 18 17 18 18 18 19 21 23 24 23 22 21 21 22 22 22 23 22 22 22 23 22 21 19 18
20 20 19 19 19 18 17 16 15 13 12 9 7 7 7 6 6 5 5 5 4 4 5 6 7 8 9 10 11 12 12 11 11 12 13 15 16 17 17 18 18 19 20 21 23 25 25 22 20 20 22 22 22 23 25 24 23 23 23 22 20 19 17
18 17 16 16 15 15 15 15 14 13 12 11 10 9 8 7 6 6 6 6 5 4 5 5 6 7 7 8 8 9 9 9 9 9 11 13 13 13 15 17 18 20 21 22 24 25 23 19 18 20 21 20 20 21 24 24 23 23 22 21 19 17 15
16 16 15 14 13 13 12 12 12 12 11 11 10 10 10 9 8 7 7 7 6 6 6 7 7 7 8 8 8 7 7 8 8 7 8 9 8 10 14 16 18 20 21 22 23 22 21 20 20 20 20 19 19 22 24 24 23 23 21 19 17 15 14
15 15 14 13 13 13 12 12 12 11 11 11 10 10 10 9 9 8 7 7 8 8 7 7 7 7 8 8 8 7 7 8 8 7 7 7 8 11 14 15 16 18 19 20 21 21 22 22 21 20 19 19 21 24 25 24 23 22 20 17 15 14 13

ECMWFFLT1_925_spd_078.txt.gz
Wind_Speed
13 13 12 11 12 12 11 11 11 11 11 11 11 11 10 10 10 9 9 8 8 8 8 8 7 8 7 7 7 7 5 6 6 6 8 9 7 6 5 2 2 3 4 2 2 4 4 5 6 8 10 9 9 9 8 8 7 7 8 8 9 11 11
12 11 11 11 11 12 12 12 11 11 11 10 10 9 9 9 9 9 9 8 8 8 8 7 7 7 7 7 7 7 6 6 6 4 7 9 7 6 7 5 3 4 4 4 4 4 3 5 5 6 9 9 9 8 7 7 6 8 9 8 10 12 12
12 12 12 11 11 12 12 12 12 11 11 10 10 9 9 9 8 8 8 8 7 6 6 6 7 7 6 7 7 7 7 7 6 5 5 7 6 6 7 6 6 5 5 6 6 5 4 5 5 7 9 9 9 7 7 8 7 8 8 8 11 12 11
14 14 13 13 12 12 13 13 12 11 11 10 10 10 9 8 7 7 6 6 5 4 4 4 6 6 6 7 7 8 8 7 7 6 5 5 5 6 7 6 6 5 5 6 7 7 6 6 7 7 8 9 11 8 6 8 9 9 9 10 12 12 11
15 15 14 14 14 13 13 13 11 11 10 9 10 9 8 8 7 7 6 6 5 4 4 4 5 5 5 6 7 7 8 8 7 6 6 6 6 6 7 7 5 4 4 5 7 7 7 7 7 8 10 11 11 10 8 9 9 10 12 12 12 11 12
14 15 15 14 15 14 13 13 11 10 10 9 9 9 9 8 8 7 7 6 5 4 5 5 5 5 5 5 6 6 6 7 7 6 5 6 6 6 7 7 6 5 5 5 6 7 7 8 8 9 11 11 10 10 9 10 10 10 11 12 11 12 12
13 13 13 14 14 14 13 13 12 11 10 10 10 9 10 9 8 8 7 5 5 5 5 5 5 5 4 4 5 6 5 5 6 5 4 5 6 6 6 7 6 6 5 5 7 8 8 9 10 11 11 11 12 12 10 10 11 10 11 11 11 12 12
14 12 12 14 15 15 14 14 11 10 10 10 10 10 10 10 8 7 6 5 5 6 6 6 6 6 5 4 5 5 4 5 5 5 4 5 5 6 6 6 6 6 6 7 8 8 9 9 10 13 14 12 11 10 10 10 10 10 11 11 11 11 12
15 13 13 17 18 16 15 13 10 10 10 10 11 11 10 9 8 7 6 5 6 7 7 7 7 7 6 5 5 5 4 5 6 5 5 5 5 6 6 6 6 6 6 7 8 8 8 9 10 13 14 13 10 8 8 9 9 10 11 11 11 11 12
15 14 15 19 19 16 13 12 11 10 10 10 10 10 10 9 8 7 6 6 7 7 8 7 7 7 7 6 6 6 6 6 6 6 5 5 5 6 6 6 5 6 7 8 8 8 8 9 10 10 10 11 11 9 7 7 8 11 11 11 12 12 12
15 15 16 19 20 17 12 11 11 10 10 10 10 10 10 10 9 8 7 6 7 7 7 7 8 8 7 7 7 7 7 6 6 5 4 5 6 6 6 6 5 6 8 8 8 9 9 9 10 9 7 8 9 9 9 8 8 11 12 11 12 13 14
15 15 16 17 18 16 12 11 11 11 11 10 10 11 11 11 10 9 7 7 7 7 7 7 8 8 7 7 7 7 7 6 5 5 4 5 6 6 7 7 6 7 8 8 9 9 10 10 9 8 6 6 6 8 10 10 8 10 11 10 11 13 14
15 15 16 16 16 15 13 12 11 11 11 10 10 12 12 12 11 9 8 7 7 7 7 8 8 8 7 7 7 7 7 6 6 6 5 6 6 7 8 8 8 8 9 10 11 10 11 10 8 7 6 6 6 8 12 12 10 10 10 10 12 14 14
16 15 17 18 17 15 14 13 12 11 11 10 11 12 13 13 11 10 8 7 7 7 8 9 9 8 8 7 7 8 7 7 7 7 7 7 8 7 8 8 8 9 10 11 12 11 11 11 8 7 6 7 8 9 10 12 12 12 10 10 12 13 14
17 17 18 18 16 15 14 13 12 12 11 11 12 13 13 13 11 10 8 8 8 9 9 10 9 8 8 8 8 8 7 7 8 7 7 8 8 7 7 7 8 10 10 11 11 11 11 11 9 8 7 7 9 9 8 10 12 13 12 11 12 13 14
17 18 18 17 16 15 14 13 12 12 11 11 12 13 13 12 11 10 9 9 10 10 11 11 10 9 9 9 9 8 7 8 8 8 8 8 8 7 7 7 7 9 9 10 10 10 11 11 9 9 8 7 9 8 7 9 11 12 13 13 13 14 15
15 17 16 15 15 15 14 13 12 12 12 11 12 12 12 12 12 11 10 11 11 11 11 11 10 10 10 10 10 9 8 8 8 8 8 7 7 7 7 7 7 8 8 9 10 9 10 10 8 8 8 7 8 8 7 8 9 11 12 13 13 14 15
13 15 15 14 15 15 14 13 12 12 12 11 12 12 12 13 12 11 11 12 13 12 12 12 11 11 11 10 10 9 8 8 7 7 7 6 6 6 6 6 6 7 8 8 9 8 8 9 8 8 8 8 8 9 8 8 9 10 12 13 13 13 14
10 11 11 11 14 15 13 13 12 11 12 11 12 12 12 12 12 11 11 12 13 13 12 12 11 12 11 10 10 9 8 8 7 6 6 5 5 5 5 5 5 5 6 7 7 7 7 8 8 8 8 8 8 8 9 9 9 10 11 12 13 13 14
10 13 12 10 12 14 13 12 12 11 12 12 12 12 12 12 11 11 11 12 13 13 12 11 11 11 11 10 9 9 9 8 7 7 6 5 5 4 4 4 4 4 4 4 5 6 6 7 8 9 9 9 9 9 11 11 10 10 11 11 13 13 13
11 14 14 12 12 13 12 12 11 10 11 12 11 12 12 13 11 10 11 11 11 11 11 11 10 10 10 9 9 9 9 9 8 8 7 6 5 4 4 3 3 4 4 4 5 5 6 7 7 8 9 9 10 11 12 13 12 12 12 12 13 13 13
10 12 11 10 11 11 10 10 10 10 11 10 10 11 12 13 12 10 11 11 10 10 10 9 10 10 9 8 8 8 8 8 8 8 8 7 6 5 4 3 3 4 5 6 7 7 7 8 8 8 9 9 10 12 13 14 15 15 14 13 14 14 15
10 11 10 9 8 7 7 9 10 9 10 9 8 9 11 12 11 10 11 11 10 9 8 8 10 10 8 7 7 6 7 7 7 7 7 7 6 6 5 4 5 5 6 6 7 8 8 9 10 10 9 10 11 12 13 15 16 17 16 15 16 16 15
11 11 12 12 12 10 8 8 9 8 8 8 7 8 9 10 10 10 10 10 10 8 8 9 10 9 8 8 7 6 6 7 6 6 6 6 6 6 6 6 6 7 7 8 8 9 10 10 11 12 12 12 12 13 13 14 16 17 18 17 16 16 16
13 12 13 13 13 11 9 7 6 5 4 5 6 7 8 9 9 9 9 9 9 8 8 9 8 7 7 8 7 7 6 7 7 7 7 7 7 6 6 7 7 7 8 9 10 11 12 13 13 13 14 15 14 15 15 15 14 14 16 18 17 16 17
12 11 11 10 11 11 7 5 5 4 3 4 4 5 6 7 7 7 8 8 8 8 7 8 7 7 7 7 8 8 7 7 7 8 8 8 9 8 8 8 8 8 9 11 12 11 12 14 15 15 16 16 17 17 18 19 18 15 14 15 16 16 17
12 11 10 10 12 12 8 4 3 4 4 4 4 4 5 5 5 5 6 6 6 6 6 6 6 6 6 7 9 10 9 9 8 9 10 11 11 11 10 9 9 9 9 11 12 11 11 13 15 17 17 17 17 17 18 19 21 19 17 15 14 14 15
12 11 11 11 10 8 6 5 5 5 5 5 4 4 4 4 4 4 4 4 4 4 5 5 5 5 5 6 7 9 11 11 10 11 12 14 16 14 11 10 11 10 10 10 12 13 12 12 13 15 16 14 13 16 19 20 21 21 20 16 11 9 10
11 11 11 11 9 8 6 6 6 6 6 6 5 5 4 4 4 4 4 3 3 3 3 4 4 4 5 5 6 8 10 12 12 12 13 15 16 14 12 11 11 11 11 11 13 16 15 13 13 13 14 14 13 17 21 22 22 22 21 19 15 12 13
12 11 11 11 10 9 8 7 6 6 6 6 5 5 4 3 3 3 3 2 2 3 2 3 4 4 5 5 6 7 8 9 10 12 13 13 13 12 12 12 13 12 12 13 15 17 17 15 15 15 15 15 14 17 21 23 23 22 21 21 20 18 17
14 13 13 12 11 10 9 8 7 6 6 6 6 4 3 3 2 2 2 1 2 3 2 3 4 4 5 6 7 7 6 7 9 10 11 12 12 11 11 15 17 15 13 14 16 17 16 16 17 16 16 16 14 15 20 22 20 18 18 18 18 17 16
15 15 14 13 13 11 10 9 8 7 7 7 6 5 4 3 3 3 2 1 2 3 1 3 4 4 6 6 7 6 5 6 8 9 9 9 10 9 10 13 16 16 14 15 18 19 17 16 18 17 17 18 15 13 18 20 16 15 15 15 15 15 15
15 15 14 13 13 11 10 10 9 8 7 6 6 6 5 4 4 4 3 2 1 2 1 3 3 3 4 5 6 4 4 6 8 8 9 9 9 9 9 8 10 12 13 15 18 19 18 18 20 18 16 15 13 14 19 18 15 15 14 15 16 17 18
14 14 12 12 11 11 11 10 9 9 8 8 7 7 6 5 5 5 6 5 4 3 2 2 4 4 4 5 6 4 3 6 7 7 8 9 8 9 8 6 7 10 12 13 15 17 19 20 21 19 16 13 12 13 14 13 14 14 14 15 15 15 16
13 12 11 11 10 10 10 9 9 8 8 8 8 7 6 5 5 5 5 6 5 5 4 4 5 5 5 5 5 4 3 6 7 6 7 7 7 7 7 6 8 12 13 13 13 15 18 20 21 22 20 17 15 13 11 11 12 11 11 13 13 13 13
12 11 11 10 9 9 8 8 8 7 6 6 6 6 6 5 4 4 4 4 5 5 5 5 6 6 6 5 5 4 3 4 6 6 6 7 8 7 7 7 10 13 14 13 13 14 16 19 22 25 22 19 17 15 14 15 15 13 11 12 13 12 12
10 10 10 10 9 9 8 8 7 7 6 5 4 4 4 4 3 3 3 3 4 5 4 5 6 7 7 6 6 6 5 4 6 6 6 7 8 8 8 10 11 11 11 12 12 12 14 17 22 24 22 19 18 16 16 19 19 16 14 13 13 12 12

ECMWFFLT1_925_spd_084.txt.gz
Wind_Speed
14 16 16 15 14 12 13 13 12 13 13 11 10 10 11 13 13 12 12 12 10 9 9 10 10 8 8 10 10 9 8 9 9 11 12 10 9 8 6 5 7 11 13 9 9 9 5 4 7 11 14 14 14 12 12 12 11 11 13 15 17 19 18
14 17 17 16 16 14 13 12 12 12 12 12 11 13 13 14 14 13 12 11 11 10 9 9 8 7 8 11 10 9 9 9 11 12 11 9 9 9 8 6 8 9 7 6 8 9 8 7 5 6 11 14 13 12 13 13 13 13 15 17 19 18 17
16 16 17 18 17 15 14 12 12 11 10 10 11 13 14 13 12 12 11 10 10 10 9 8 8 7 8 10 9 9 10 10 11 11 11 9 7 9 8 6 7 8 7 3 4 8 9 8 7 7 11 11 9 9 12 14 15 15 16 18 18 17 16
16 16 19 19 17 17 16 14 12 11 9 9 11 12 12 11 10 10 10 9 8 8 8 7 7 8 8 9 9 9 10 10 10 10 10 9 8 8 8 6 7 10 9 5 5 8 8 7 8 8 10 12 11 10 11 13 15 15 16 17 17 18 15
16 18 19 20 19 18 17 16 15 15 12 11 11 11 10 10 9 10 9 9 8 7 8 7 7 8 7 8 10 9 9 9 10 10 9 9 9 8 6 5 6 8 9 7 8 10 9 12 12 8 10 13 11 11 13 14 14 13 15 16 15 14 13
19 20 20 20 19 17 16 16 15 16 14 13 12 11 11 11 11 11 10 10 8 6 7 6 7 8 7 6 8 8 9 10 9 9 9 9 8 8 7 5 6 6 7 8 10 12 11 15 17 11 12 13 11 12 13 13 13 13 16 17 13 12 13
21 21 20 19 18 15 16 15 13 13 13 13 13 13 13 12 11 12 10 10 9 7 7 7 7 8 7 7 7 7 8 8 7 7 8 8 7 8 7 6 7 7 7 9 11 13 14 15 17 15 13 12 12 14 12 11 13 14 16 18 17 17 16
20 20 19 18 17 15 15 15 13 12 13 13 13 13 14 13 12 12 11 10 9 9 9 8 8 8 7 8 7 8 8 6 7 7 6 7 8 8 8 7 9 7 7 10 11 12 14 15 17 20 17 10 8 11 11 11 13 14 17 19 19 18 16
18 19 19 17 16 15 15 15 13 12 12 14 14 13 13 14 13 12 11 10 10 10 10 10 10 8 8 9 8 9 9 8 9 8 7 8 9 8 8 7 9 8 8 11 11 10 13 15 17 19 19 13 8 7 7 8 9 13 18 20 18 15 14
17 19 19 17 15 15 15 15 12 11 12 14 14 13 13 13 12 11 11 10 9 10 11 10 10 8 9 10 9 10 11 10 10 9 7 8 9 8 8 8 9 10 10 11 10 10 12 15 16 15 15 14 11 7 5 4 5 11 17 19 19 17 15
19 20 20 18 16 15 15 14 11 11 13 14 14 13 13 13 12 11 11 10 10 10 10 10 10 9 9 10 10 11 11 10 10 10 8 9 9 9 9 9 10 10 10 11 11 10 13 15 14 13 12 12 11 9 8 6 4 11 18 18 20 20 17
20 20 20 18 17 16 14 12 11 13 14 14 14 13 13 12 11 11 10 10 10 10 9 10 10 8 9 10 10 10 9 9 10 10 9 9 9 10 9 9 10 10 11 12 11 10 13 14 13 12 11 12 13 11 11 10 6 9 17 18 20 21 19
19 20 20 20 19 16 13 11 12 14 14 13 13 12 12 12 11 11 10 10 10 9 9 10 8 8 10 9 8 9 8 8 9 9 9 8 8 10 10 9 10 11 12 13 12 11 12 14 14 13 11 11 13 13 13 13 10 9 15 19 22 21 20
19 20 20 21 20 17 15 14 13 13 13 13 13 12 12 12 11 11 11 10 10 10 9 9 8 8 9 7 7 9 7 6 9 10 9 9 9 9 9 9 10 12 12 13 13 12 11 12 13 14 14 13 14 15 14 13 12 12 14 19 22 21 20
21 21 21 21 20 18 18 17 15 13 13 12 12 12 12 12 11 10 11 10 10 10 9 9 9 8 8 7 8 7 6 7 11 11 9 10 10 9 9 9 11 12 12 13 13 11 10 11 12 14 16 15 16 17 16 15 16 14 14 19 22 21 21
22 22 22 21 20 19 19 18 17 15 13 13 13 12 12 12 10 10 10 10 10 10 10 10 9 8 8 9 8 6 6 10 12 10 9 10 10 10 10 11 11 12 12 12 11 10 10 10 10 12 13 16 18 18 19 18 19 17 16 17 20 21 21
22 23 22 20 19 18 17 17 15 14 14 14 13 13 13 11 10 9 10 10 10 10 11 10 8 8 9 8 7 7 8 10 10 8 9 10 10 11 12 11 11 11 11 10 8 9 9 7 5 7 11 11 11 13 19 20 19 18 17 16 16 19 21
22 22 19 18 19 17 16 16 14 14 14 14 13 13 12 10 9 9 9 10 10 10 11 10 9 9 9 8 8 8 9 9 8 7 9 11 10 11 11 12 12 11 9 7 6 7 7 4 3 6 12 11 6 8 14 17 18 19 17 16 16 16 20
23 20 17 17 18 17 16 15 14 13 14 14 13 13 12 10 10 9 9 10 10 10 10 10 10 10 9 8 8 9 9 8 7 8 10 10 10 9 9 10 11 11 9 6 5 6 5 3 1 3 8 9 8 9 9 9 16 20 17 16 16 14 19
22 19 17 17 18 16 16 15 14 13 13 13 13 12 11 10 10 9 10 10 10 10 10 10 10 10 10 9 8 9 9 7 8 8 8 8 9 8 8 9 9 10 8 6 6 5 3 2 1 2 3 3 6 10 9 6 10 17 17 17 17 14 17
20 17 18 18 17 16 15 14 14 14 13 13 12 11 12 11 9 9 10 10 11 10 10 10 10 10 10 10 8 9 8 7 8 7 5 7 8 6 7 8 7 8 8 7 7 5 3 3 2 1 1 1 1 5 8 7 7 10 15 17 18 16 16
18 17 18 17 15 16 14 12 14 14 12 12 11 11 12 11 10 10 10 11 12 10 9 11 10 8 10 11 9 9 8 7 7 6 4 7 6 4 6 7 6 5 6 6 7 7 6 5 5 3 2 3 4 4 5 7 9 8 9 12 16 18 16
17 17 17 16 14 16 13 10 13 13 11 12 11 10 12 11 10 10 10 12 13 10 9 10 8 7 9 10 10 9 7 6 7 5 3 5 5 3 5 8 8 7 5 4 2 2 4 4 4 4 4 4 5 5 6 8 10 10 10 9 9 14 16
19 18 17 16 15 15 12 10 12 12 11 11 10 9 11 11 9 9 11 13 13 11 8 7 7 7 9 9 10 9 6 5 5 4 3 3 3 3 3 3 3 4 4 3 4 4 3 4 5 6 6 6 6 6 6 8 9 8 8 9 9 8 9
19 19 18 17 16 15 13 12 12 12 11 10 9 8 9 11 9 7 10 12 11 9 5 4 4 6 7 9 9 8 6 4 3 3 4 4 6 7 7 4 1 3 5 3 2 3 4 5 6 8 8 9 10 10 9 10 11 11 10 10 11 11 12
16 17 18 17 17 16 15 14 14 14 13 11 10 8 8 10 8 5 9 12 10 6 4 3 2 4 4 5 6 5 4 5 4 3 2 2 3 6 7 6 3 4 7 6 4 4 4 5 6 9 10 10 11 12 14 14 15 16 16 15 15 15 16
17 17 17 16 16 16 14 14 15 15 13 13 13 11 11 12 10 8 10 14 12 9 7 5 4 3 3 2 2 2 2 3 5 6 3 2 3 3 4 5 4 5 8 7 7 8 8 7 8 9 12 14 13 11 12 15 17 18 19 19 19 18 17
17 18 18 16 15 14 11 10 12 13 11 11 12 12 11 11 11 13 14 14 13 11 9 7 5 3 2 1 1 0 1 2 3 4 5 4 5 4 4 6 5 5 6 7 8 10 11 11 11 10 11 16 16 12 11 13 15 16 17 18 19 18 17
16 17 18 16 16 16 14 12 11 12 11 9 9 10 10 9 9 11 12 11 11 10 8 6 5 3 2 1 0 1 1 1 2 3 4 4 6 7 6 5 5 5 6 7 8 9 12 13 13 13 12 15 16 14 13 14 14 15 16 16 17 17 17
14 14 15 15 15 15 14 12 11 11 11 10 9 9 10 9 8 8 8 7 6 6 5 4 3 2 1 1 1 1 1 1 3 4 4 4 4 5 4 1 4 6 9 10 10 10 11 12 13 14 14 15 17 15 14 15 17 16 16 17 18 18 19
13 13 14 14 14 14 13 12 11 10 10 11 10 10 11 11 9 8 9 8 6 5 4 3 1 1 2 3 3 3 2 2 4 5 5 5 5 6 6 5 6 8 10 11 12 12 11 11 12 12 12 15 17 15 12 14 17 19 19 18 19 19 20
17 16 15 14 14 14 13 12 11 10 11 11 11 11 12 12 11 10 9 9 7 5 4 3 1 2 4 4 4 4 3 3 5 6 5 5 5 5 7 9 9 9 9 8 8 9 10 11 11 12 13 16 17 16 14 15 18 19 19 18 18 18 18
18 18 17 15 13 11 11 12 12 12 11 12 13 12 10 10 11 11 9 7 5 4 3 2 2 2 3 4 3 3 2 2 3 4 5 6 7 7 8 9 8 5 4 4 4 6 9 10 12 13 14 16 17 17 16 16 17 18 17 16 16 16 16
19 18 18 16 13 11 10 11 12 12 10 10 11 11 9 8 8 8 7 5 4 2 1 2 2 2 2 1 1 1 1 2 4 4 5 8 10 9 6 4 4 3 2 2 4 7 10 12 14 14 14 15 16 17 17 16 16 17 17 16 15 14 14
21 20 19 18 16 15 12 11 11 12 11 11 11 10 10 9 8 8 8 7 6 6 6 6 4 4 4 4 4 3 3 4 6 6 5 8 11 10 7 4 4 4 4 5 8 10 12 14 15 15 15 14 15 17 17 16 16 16 15 14 14 14 14
20 20 19 18 18 17 15 13 12 11 10 11 13 13 12 10 10 11 11 10 10 11 10 9 8 8 8 7 6 6 7 7 8 8 6 7 8 8 8 8 7 8 9 10 10 12 13 14 14 14 14 14 14 14 14 14 14 14 14 13 13 14 14
19 19 18 17 17 17 16 14 13 12 11 10 10 11 11 12 12 12 12 12 12 12 10 9 10 10 9 9 10 10 10 11 11 10 8 6 7 9 11 12 12 12 13 13 13 13 13 14 14 14 14 13 12 11 10 11 13 13 14 15 16 16 15

ECMWFFLT1_925_spd_087.txt.gz
Wind_Speed
27 26 25 24 23 23 22 22 21 19 17 17 16 15 14 14 15 13 11 10 10 11 11 10 9 9 10 11 12 13 14 18 20 19 20 19 17 13 10 8 8 18 21 13 14 13 6 3 6 9 10 11 13 13 13 13 14 16 17 17 16 14 13
28 26 24 23 22 22 21 21 20 20 19 18 16 16 15 16 17 16 13 12 11 11 12 11 9 10 10 12 14 14 15 18 18 17 19 18 17 15 12 12 16 18 14 12 17 17 10 7 4 4 8 11 10 11 12 13 17 20 20 19 16 14 13
26 24 24 23 21 21 21 21 21 21 19 18 16 16 16 17 17 17 15 13 12 12 12 13 13 13 13 14 15 15 14 16 16 15 16 15 15 15 13 16 18 16 14 12 15 17 12 8 6 6 10 10 9 9 11 15 20 21 20 18 16 13 13
25 26 26 24 22 22 21 21 21 20 18 17 16 16 17 17 16 17 15 12 13 14 12 13 14 13 14 14 14 13 13 14 16 16 15 14 15 14 12 15 17 17 15 13 16 19 14 9 9 8 10 13 12 12 14 17 22 22 18 17 16 12 13
26 28 28 27 25 23 22 21 20 18 17 16 16 16 17 16 16 16 16 15 15 15 13 13 14 12 13 14 13 13 13 14 16 16 14 14 14 14 12 12 13 14 15 16 20 21 17 17 16 9 10 14 11 11 16 18 19 17 16 17 15 11 14
27 27 28 28 26 24 23 21 19 18 18 17 17 17 16 15 16 16 17 16 14 14 13 14 13 12 14 14 12 12 12 12 14 14 13 13 12 13 12 11 10 11 13 17 19 19 20 23 20 13 12 13 10 11 15 15 14 14 15 17 13 11 15
26 26 25 26 25 23 22 21 20 18 18 18 18 18 18 17 17 17 17 15 12 13 14 14 14 14 14 13 12 12 12 11 12 12 13 12 12 12 11 11 12 11 12 15 17 19 24 25 22 18 14 11 11 12 12 12 14 14 14 15 13 14 15
23 25 23 24 24 21 19 19 19 18 17 18 18 18 18 17 17 17 17 15 13 15 16 16 15 15 14 14 13 13 12 11 11 12 13 13 13 11 10 12 13 11 12 15 16 20 27 28 26 25 21 12 7 7 8 10 12 15 18 16 14 15 16
19 23 22 21 20 19 18 18 18 18 18 19 20 19 18 18 18 18 18 16 14 15 16 16 16 15 14 14 13 12 13 12 12 12 12 12 13 12 11 12 12 12 13 14 16 21 26 27 27 28 27 21 12 5 4 5 7 13 20 20 14 12 14
17 21 22 21 20 19 19 19 18 19 19 20 21 20 19 19 19 18 18 16 14 14 15 15 15 14 13 14 14 13 12 12 12 12 11 13 13 12 12 12 11 13 14 15 16 20 24 26 26 27 26 26 22 12 5 4 5 11 17 19 15 12 13
19 21 22 22 21 21 21 19 19 20 20 20 21 21 20 18 18 18 17 16 16 16 16 15 15 15 14 15 15 13 12 12 11 10 11 13 13 12 12 12 11 14 16 15 15 19 24 25 23 24 22 23 25 19 11 7 6 13 20 17 15 15 16
20 20 21 21 21 22 21 19 20 23 22 21 21 21 20 19 19 18 17 18 17 16 16 14 15 16 16 16 15 13 12 12 11 10 11 13 13 13 13 12 12 15 15 15 16 20 24 22 21 23 20 20 23 19 17 14 7 13 23 18 13 16 19
19 19 20 21 22 22 20 19 23 26 24 22 22 21 19 20 20 18 18 18 15 15 16 15 15 18 17 15 14 13 14 13 12 11 11 12 14 13 12 12 13 14 15 15 17 20 23 21 20 21 19 18 20 17 18 19 11 10 20 20 16 16 20
19 20 21 22 22 20 19 22 25 26 24 22 21 20 18 18 17 17 18 16 14 16 17 14 16 18 15 13 12 13 15 15 13 12 12 12 14 12 12 13 14 15 16 15 17 20 21 20 17 18 17 15 16 16 20 22 16 12 15 19 19 18 21
20 22 23 23 22 20 21 24 24 24 24 22 21 19 17 16 16 18 17 14 15 16 15 14 17 16 13 13 13 11 12 15 15 14 13 13 14 13 13 14 14 14 14 14 16 18 19 19 17 16 17 16 15 17 21 23 19 17 17 20 21 21 24
22 24 25 24 22 21 22 23 22 22 23 21 19 19 17 15 16 17 16 15 15 14 13 15 15 13 13 13 11 9 12 16 16 14 13 13 14 14 13 14 15 14 14 14 15 16 18 19 18 17 18 19 19 17 20 22 21 21 21 21 22 25 27
23 25 26 25 23 22 21 21 21 20 21 19 18 18 16 15 16 17 17 16 15 14 15 15 13 13 14 12 12 14 17 17 15 13 14 14 14 13 13 14 15 14 14 13 11 12 14 10 11 18 19 18 20 20 19 21 22 24 25 23 23 26 28
24 26 27 25 24 23 22 21 19 18 20 18 17 18 16 15 17 17 17 16 15 15 15 13 13 15 13 11 14 17 16 14 12 13 15 15 12 12 13 15 14 12 11 9 6 8 8 1 1 17 24 19 19 22 22 21 22 24 26 26 26 25 26
24 26 26 23 23 24 22 20 18 18 18 17 18 18 16 15 17 17 16 16 16 16 14 12 14 14 11 11 14 13 12 12 12 14 16 14 11 11 14 13 11 9 7 4 3 5 4 5 8 10 18 18 19 22 23 21 22 25 26 27 27 25 26
24 23 22 21 23 24 22 20 19 17 17 18 20 19 16 16 18 17 17 17 16 16 14 13 14 13 12 12 12 11 13 14 14 16 16 13 11 13 14 13 10 7 5 3 5 5 5 7 10 10 8 11 15 19 23 23 23 24 25 25 24 24 27
21 21 22 23 24 24 21 19 19 18 17 19 19 17 16 17 17 17 19 18 16 16 16 16 15 13 12 13 12 12 14 14 14 16 16 13 14 16 15 13 11 7 4 3 3 4 4 4 5 7 7 7 9 12 17 22 24 24 23 23 22 22 26
19 21 23 24 23 22 21 19 19 19 18 19 17 16 17 16 15 18 21 19 17 17 18 17 17 15 13 13 14 14 14 13 14 18 19 18 18 18 16 14 11 8 6 4 3 2 3 2 3 4 5 4 4 5 6 11 18 20 20 20 21 20 22
17 20 23 24 21 20 21 20 19 18 18 18 17 16 17 14 14 20 23 20 19 20 19 17 16 17 16 15 15 15 15 15 15 16 18 18 17 16 15 13 11 9 7 6 4 4 3 2 1 3 4 4 2 1 2 3 6 9 11 13 17 18 19
18 20 22 23 19 18 21 22 20 19 19 17 16 17 16 12 15 22 24 22 22 21 20 19 18 18 18 17 16 17 16 14 13 12 12 13 12 11 10 9 8 6 5 5 5 4 2 2 1 2 3 3 2 2 3 5 5 4 4 5 9 14 17
19 20 22 21 18 18 21 22 20 19 17 14 15 18 15 12 19 24 24 23 23 21 19 19 19 19 19 18 17 16 15 13 11 10 9 9 8 7 6 5 4 3 3 3 3 2 1 0 2 3 4 4 4 4 4 5 7 8 7 5 6 8 11
18 21 22 21 19 20 21 20 19 18 15 14 16 18 15 17 24 26 24 23 23 21 19 17 17 17 18 17 16 14 13 12 10 9 8 6 6 4 3 2 2 1 2 2 1 1 2 3 4 4 5 5 5 5 6 6 7 9 10 11 12 12 11
20 22 22 22 22 23 23 22 21 19 18 18 18 18 18 22 25 24 23 22 21 20 19 16 15 15 15 15 14 14 12 10 9 9 8 7 6 4 4 3 3 2 2 1 2 3 4 6 7 8 8 7 6 7 7 7 7 7 10 12 14 17 17
20 21 22 23 23 22 23 23 23 21 22 22 21 21 22 23 23 22 21 21 20 20 18 16 14 13 13 13 12 12 11 9 8 8 7 6 5 4 3 3 3 2 1 0 3 4 6 8 9 9 9 8 7 7 7 8 9 9 11 13 15 17 18
17 17 18 21 19 18 17 18 18 18 19 21 21 22 23 22 21 21 20 20 20 20 18 15 13 13 13 12 11 10 9 8 8 7 6 5 5 4 3 1 1 1 1 1 3 6 8 10 10 10 10 9 8 8 8 9 10 11 13 14 15 16 17
15 13 14 16 16 14 12 12 12 11 12 15 15 17 19 20 19 18 18 18 18 18 16 13 11 11 11 11 11 10 10 10 10 9 7 7 7 6 5 4 3 1 2 4 5 7 8 9 9 9 9 9 9 9 9 10 10 11 12 14 15 16 17
15 15 14 14 15 13 11 11 12 11 11 12 13 14 15 17 16 16 16 15 15 14 13 11 8 8 9 8 8 8 8 8 8 9 9 9 8 8 8 5 3 2 3 4 4 4 4 4 5 7 8 9 10 11 10 11 11 12 14 15 17 17 18
16 17 17 17 16 15 14 14 15 14 14 14 14 14 15 16 17 17 15 15 13 13 13 12 9 8 8 8 7 7 7 7 8 9 11 10 8 6 5 4 2 1 2 2 3 4 5 5 6 8 9 11 12 13 12 12 13 15 16 17 18 18 19
17 16 16 17 17 17 17 16 17 16 16 15 15 14 14 15 17 17 16 15 13 12 12 13 11 10 9 9 8 8 8 9 10 10 11 9 7 6 6 6 5 5 5 5 5 6 7 8 9 10 10 11 12 13 14 14 14 14 15 16 17 16 17
23 20 16 13 13 16 17 16 15 16 15 15 15 15 15 15 16 15 13 12 14 14 13 13 13 13 12 12 12 10 11 12 11 11 11 11 10 9 9 8 7 7 7 8 8 9 11 11 12 12 11 11 11 12 13 14 14 14 14 15 16 15 15
25 26 23 18 14 15 15 13 12 13 14 14 15 15 15 14 15 16 16 16 18 19 18 17 17 17 17 18 17 16 15 15 12 11 11 12 12 12 11 10 10 10 10 11 12 13 13 13 13 13 12 12 11 11 11 12 12 13 13 14 15 15 15
24 25 27 25 22 19 16 14 11 10 11 13 14 15 15 16 17 19 21 22 23 22 22 21 21 21 21 20 20 19 17 16 13 11 12 13 13 13 13 13 13 13 12 12 13 13 12 12 12 12 13 13 13 12 11 9 8 9 12 14 15 16 16
23 23 23 24 24 23 22 22 20 16 13 13 13 14 15 17 19 21 23 23 23 21 21 21 21 21 20 19 19 17 16 14 13 12 13 14 12 11 12 13 14 14 13 13 13 13 11 11 12 13 15 16 16 15 12 9 7 9 12 14 14 15 16

ECMWFFLT1_925_spd_093.txt.gz
Wind_Speed
15 16 16 15 15 16 15 14 17 18 18 18 19 19 19 19 19 19 18 18 19 19 18 19 19 18 17 16 18 18 18 19 19 19 20 19 18 15 12 6 1 4 11 11 10 9 5 2 3 5 5 5 6 7 7 7 7 7 6 7 7 7 7
15 16 15 13 13 14 14 15 18 19 18 18 19 18 18 18 18 18 17 18 18 18 18 18 18 18 17 18 19 20 20 20 20 19 19 20 20 17 13 8 5 10 10 8 12 12 7 4 3 2 5 6 5 6 7 7 6 5 5 6 6 6 6
15 15 15 14 13 13 15 18 20 20 19 19 18 17 17 17 18 17 17 17 17 17 17 16 16 17 18 19 19 20 20 20 20 19 19 20 20 18 14 10 10 13 10 7 10 12 9 6 3 4 6 6 5 5 6 8 7 6 5 4 4 4 4
17 17 17 17 16 18 19 19 20 20 19 19 17 17 17 18 18 18 17 16 16 15 15 15 15 16 19 20 20 20 19 19 19 19 19 19 19 19 16 12 12 14 12 10 14 15 11 7 5 5 7 8 7 6 6 9 9 7 5 3 3 3 4
20 21 22 22 21 22 22 21 20 19 18 17 16 17 18 18 19 18 17 17 16 15 15 16 15 16 18 19 20 19 18 18 18 18 18 17 17 19 18 14 13 15 14 14 18 18 14 13 12 8 7 9 7 4 7 10 9 7 5 4 3 2 2
20 23 25 26 25 25 24 23 22 20 19 18 18 18 19 19 18 18 18 18 17 16 16 16 16 16 17 18 19 19 17 16 17 17 17 16 16 17 17 15 13 15 15 13 16 17 13 15 17 11 8 9 6 4 7 10 9 6 5 5 4 2 1
22 23 25 27 27 26 26 25 24 23 22 21 21 20 20 19 18 18 18 18 18 17 17 17 16 16 16 16 17 18 16 14 14 15 16 15 15 15 15 14 14 14 14 11 12 15 14 16 18 16 12 8 7 7 5 6 8 6 5 6 5 3 2
22 23 24 26 27 28 28 27 26 24 23 23 22 20 20 19 18 18 19 19 18 18 18 17 16 15 16 16 16 16 15 14 13 14 15 15 15 14 13 13 12 13 13 10 10 14 15 15 18 22 19 10 5 4 3 4 7 6 6 7 6 5 4
24 24 25 26 27 29 29 29 27 25 24 23 22 21 20 19 19 19 19 20 19 19 19 17 15 15 16 15 15 15 15 14 13 14 15 15 15 15 13 11 11 12 12 10 10 13 15 15 16 22 24 18 10 4 2 2 4 5 6 7 8 8 7
27 27 27 27 28 29 29 28 27 25 24 24 23 21 20 19 19 20 20 20 20 20 19 17 15 15 15 15 14 14 15 15 14 14 14 14 14 14 13 10 9 10 11 11 11 13 15 15 17 20 22 22 18 9 3 3 4 6 8 8 9 9 10
28 28 28 28 28 29 29 28 27 25 24 23 22 21 20 20 20 20 20 19 20 20 18 16 15 15 15 14 14 14 15 15 15 14 14 14 13 12 12 10 8 9 9 10 11 13 15 15 17 20 20 19 17 14 9 6 4 9 10 10 11 10 10
26 27 29 29 29 30 30 29 27 25 24 22 21 21 21 21 21 20 20 19 19 19 17 16 15 15 15 15 15 15 15 15 14 14 13 13 12 11 10 10 10 10 9 8 10 13 16 16 17 19 19 16 13 12 12 8 3 8 12 12 13 11 10
24 26 28 29 30 31 30 26 23 21 21 20 20 22 22 22 22 21 19 18 18 19 17 16 16 15 15 15 15 15 15 14 13 13 13 12 11 10 10 10 10 11 9 8 9 12 15 17 16 17 19 18 12 8 9 9 4 6 11 12 12 12 10
22 24 26 27 29 29 26 23 20 20 21 21 20 20 22 23 23 20 17 15 17 19 19 18 16 16 15 14 14 13 13 13 12 12 12 12 12 11 11 10 9 10 9 8 9 10 13 16 16 17 19 18 14 8 8 10 7 5 9 11 12 13 11
18 21 23 25 25 23 22 22 22 22 23 24 24 21 20 21 21 20 18 16 16 18 20 19 17 16 15 14 14 13 12 12 11 12 12 12 12 11 11 10 9 9 9 8 8 9 12 15 16 18 19 18 15 11 9 10 10 8 10 12 13 13 12
13 17 19 21 19 17 19 21 22 24 26 27 27 23 19 19 20 21 19 17 18 19 20 19 16 15 15 15 14 13 12 11 10 11 11 11 11 11 11 10 9 10 10 8 8 9 11 14 15 16 17 16 16 15 12 11 11 11 12 14 14 15 13
13 16 15 13 12 15 18 20 22 26 28 27 26 23 21 20 20 20 19 18 19 20 19 18 16 16 16 14 13 13 11 10 10 10 11 11 11 11 11 10 10 10 10 8 8 10 11 12 14 15 14 14 15 15 14 14 13 12 14 15 15 16 14
16 17 13 9 11 16 19 20 23 26 27 26 26 25 23 21 19 18 18 17 19 19 19 19 18 18 16 14 12 12 10 9 9 10 11 11 11 10 10 10 10 10 9 8 8 9 10 11 14 14 12 13 15 15 15 16 16 15 15 16 16 16 14
17 16 13 11 14 19 20 20 22 24 26 26 25 25 24 21 19 18 17 16 17 18 18 19 19 18 16 14 13 12 10 9 10 10 11 11 10 9 9 9 10 9 8 7 8 8 8 11 13 14 13 14 17 18 16 15 17 17 16 16 16 16 15
16 12 12 12 15 18 21 23 24 24 25 24 23 24 23 21 20 19 16 15 16 17 18 19 20 18 16 15 14 14 12 11 11 10 11 11 10 8 8 9 9 9 8 7 7 7 8 11 13 16 17 17 18 19 18 16 17 18 17 16 16 16 15
13 13 14 14 15 19 23 25 25 24 23 23 23 23 22 21 21 19 17 16 16 18 19 19 18 17 16 16 16 15 15 14 13 12 11 11 10 9 9 10 10 9 9 9 8 8 7 8 8 9 11 15 18 19 17 17 18 19 18 17 16 16 16
13 15 15 16 18 22 25 25 24 24 24 24 24 22 20 20 21 20 18 16 16 18 19 17 16 15 16 16 16 17 18 17 15 13 12 12 12 12 12 13 13 12 12 11 10 9 7 4 2 1 1 5 12 17 17 16 17 18 19 17 15 14 14
16 17 16 17 18 19 21 23 24 24 24 25 24 21 19 20 21 20 18 17 16 17 18 17 15 15 16 16 17 18 19 18 16 14 14 16 16 16 16 15 15 14 13 12 11 9 8 5 3 2 4 5 5 9 13 15 17 17 18 18 17 15 15
16 19 19 18 15 15 16 18 21 21 22 24 24 22 21 21 21 20 18 18 17 17 17 16 15 15 15 16 17 19 19 19 18 17 17 19 18 17 17 16 14 14 12 11 11 9 8 6 5 4 4 5 4 2 4 9 13 15 16 16 16 15 16
15 19 21 19 16 17 17 15 18 21 22 23 23 21 21 22 22 20 19 19 18 17 17 16 14 14 15 14 16 19 21 21 20 20 19 19 18 17 17 16 15 13 12 11 10 9 8 7 6 5 5 5 5 4 2 4 8 11 13 14 15 16 18
15 17 20 20 19 21 19 15 17 22 23 21 21 20 21 22 22 21 20 19 19 18 18 16 15 16 16 16 18 20 22 22 21 21 20 19 17 16 15 14 13 12 11 9 9 8 7 7 6 5 5 4 4 4 3 3 3 5 7 9 11 12 13
15 16 18 19 19 20 18 13 16 22 22 21 20 21 22 22 22 21 20 19 19 18 18 18 19 20 20 20 20 21 22 22 22 21 19 17 15 14 13 12 11 10 9 8 7 7 6 5 5 5 4 4 4 3 2 2 2 1 1 2 4 4 5
13 15 15 15 16 17 15 13 18 22 21 20 21 21 22 22 21 20 20 19 19 19 21 22 23 23 23 23 23 23 23 23 21 20 18 16 14 13 12 11 10 9 8 7 5 5 4 3 3 3 3 3 4 3 2 1 0 0 1 1 2 2 2
12 14 14 14 13 13 13 15 21 23 21 21 21 21 22 22 22 22 21 21 22 23 24 26 25 25 24 24 24 24 24 23 21 20 18 15 14 13 12 11 10 9 8 6 4 2 1 2 3 3 3 3 3 3 3 3 2 1 1 2 2 3 3
13 14 15 15 15 14 14 15 20 23 24 24 23 23 24 23 24 25 25 25 26 27 27 27 26 26 26 26 26 25 24 23 22 19 17 16 14 13 12 10 9 8 7 5 4 3 3 3 4 4 4 4 4 3 4 4 3 3 3 3 3 4 4
15 16 16 16 16 17 17 16 16 19 23 26 26 25 25 25 24 25 26 26 26 27 27 25 25 24 25 26 26 23 20 19 19 17 16 16 14 13 12 10 8 7 6 7 6 5 5 5 5 6 6 6 6 6 6 5 4 4 3 3 3 3 4
14 16 17 18 19 19 19 19 19 18 20 24 27 25 25 26 24 23 24 24 22 22 23 23 22 20 20 21 21 18 14 14 16 16 15 15 14 13 12 11 9 8 7 8 7 6 6 6 6 7 7 7 8 9 9 7 6 5 5 4 3 3 3
11 12 13 17 21 22 21 22 22 21 20 22 26 25 24 26 25 23 22 21 19 18 18 18 17 15 14 14 14 14 14 15 17 17 16 15 15 15 13 12 11 9 8 7 6 6 7 7 8 8 8 8 11 11 10 9 8 8 7 6 5 4 3
10 10 10 13 17 21 24 23 21 21 21 21 23 23 22 23 25 25 22 18 16 16 15 15 14 12 11 12 12 14 16 18 19 19 17 16 15 14 13 12 11 10 8 8 7 7 9 9 9 9 10 12 13 12 10 9 8 7 6 6 5 5 5
12 11 11 12 13 17 22 22 18 19 22 22 23 23 21 21 22 23 21 18 16 15 13 13 13 12 12 13 13 15 17 18 18 18 17 16 15 14 14 12 12 12 10 10 10 9 10 10 10 11 13 14 14 13 12 10 9 7 7 6 6 6 7
15 13 12 13 14 16 20 22 20 20 22 23 23 24 24 23 23 22 20 19 18 16 14 14 13 11 11 12 12 13 15 16 15 14 15 16 15 14 14 13 13 13 12 12 12 12 12 11 12 13 14 14 14 13 13 12 11 11 10 9 9 9 10
17 16 14 14 15 16 18 21 22 22 23 25 26 25 24 25 25 25 23 22 20 18 17 16 15 14 13 13 14 14 14 14 13 12 14 15 14 13 13 14 14 15 14 14 14 13 13 12 12 13 13 12 12 12 12 12 12 12 12 12 12 12 12

ECMWFFLT1_925_spd_096.txt.gz
Wind_Speed
17 16 16 17 18 19 18 16 16 16 16 17 18 19 19 19 20 21 21 19 18 18 18 19 18 17 17 16 17 19 19 20 20 21 22 23 22 17 12 7 3 8 12 10 10 9 5 3 4 5 5 5 7 5 3 4 5 5 5 5 4 3 4
16 16 16 17 18 19 18 17 15 15 15 16 18 20 20 19 18 20 20 20 19 18 18 17 17 16 16 16 17 18 19 20 19 19 21 23 23 20 16 10 7 11 11 6 9 10 6 4 4 4 4 5 6 6 3 4 5 5 4 4 4 3 3
16 15 17 18 18 18 17 17 16 15 15 15 17 19 21 19 18 20 20 20 19 18 18 17 16 16 16 16 16 17 18 19 18 18 18 19 20 19 17 14 11 13 9 5 9 10 6 5 4 5 7 5 5 5 5 5 5 4 2 1 1 0 1
18 17 18 19 19 19 19 18 17 18 19 18 19 19 19 19 19 20 19 19 18 17 17 17 16 16 16 16 16 16 18 18 17 16 16 16 18 17 16 15 13 13 9 7 11 14 9 7 6 6 7 7 7 5 6 8 6 4 1 0 1 2 3
21 20 20 20 21 21 21 19 18 20 22 21 21 20 19 19 19 19 18 18 17 17 17 16 16 15 15 15 16 17 17 17 16 15 15 14 15 17 16 15 13 12 11 8 11 15 13 11 12 9 7 9 7 5 8 10 7 4 3 1 2 3 4
23 22 21 21 22 21 21 20 19 22 24 24 23 22 20 19 19 18 18 18 17 17 17 17 16 15 14 15 16 16 16 16 16 15 16 15 15 16 16 16 13 11 11 9 9 13 14 14 15 11 8 8 5 5 8 9 7 4 3 1 1 3 4
25 23 22 21 22 22 22 22 22 23 24 25 24 22 20 19 19 18 18 18 17 16 16 16 16 15 14 15 16 16 15 15 15 15 15 15 14 14 14 16 15 12 11 10 9 14 15 15 16 14 11 7 5 6 5 5 6 5 3 3 2 2 3
23 21 20 21 20 21 21 23 24 24 24 24 24 22 20 19 19 18 18 18 17 17 17 16 16 15 14 14 15 15 15 15 15 15 15 15 14 13 12 13 13 12 11 9 10 13 15 15 15 18 18 10 4 4 3 3 5 5 4 4 3 3 2
19 18 18 20 20 20 21 22 23 24 24 24 23 22 20 19 18 18 18 18 17 18 18 17 16 16 15 15 14 14 15 15 15 15 15 16 14 12 11 11 11 10 10 9 9 12 14 14 14 18 21 17 9 4 3 3 4 5 6 5 4 5 4
19 18 18 19 20 21 22 22 23 23 23 23 23 22 20 19 19 18 17 18 18 18 18 16 16 15 14 14 13 13 14 15 15 14 14 15 14 12 12 11 9 8 9 9 9 11 13 14 14 16 18 19 14 8 4 4 5 7 7 6 6 5 5
19 20 21 20 20 21 22 22 21 20 19 19 20 20 20 19 19 18 17 17 18 18 16 15 15 14 13 13 12 12 12 13 13 12 12 13 13 12 12 11 9 8 9 10 10 11 13 14 15 15 15 17 15 10 8 5 5 9 10 8 8 6 5
19 21 22 22 22 20 19 17 16 17 18 18 19 19 19 19 19 17 17 17 17 17 16 15 15 14 13 13 12 12 12 12 12 12 11 11 12 11 11 11 10 9 9 10 10 12 14 14 14 15 14 15 13 9 10 7 2 7 11 9 9 8 5
17 19 21 22 18 13 13 14 16 19 19 18 19 18 18 18 18 17 16 16 16 16 16 15 15 14 13 13 13 12 12 12 12 12 11 12 11 11 11 12 11 10 9 9 10 11 14 14 14 14 15 15 12 8 9 7 3 4 10 10 8 8 6
14 17 19 16 8 9 14 17 17 18 17 17 18 18 18 18 17 16 16 16 15 15 16 16 15 15 14 13 13 12 12 12 12 12 11 12 12 11 11 12 11 10 9 9 9 11 13 13 14 16 16 15 13 9 8 7 5 4 8 10 9 7 7
13 12 13 8 4 11 19 18 16 18 17 17 18 17 18 17 16 16 16 15 15 16 17 17 16 15 14 14 13 13 12 13 13 12 12 12 12 12 11 11 10 10 10 8 8 9 11 12 14 16 17 16 14 11 8 6 5 5 7 10 11 9 9
9 7 8 7 8 14 19 18 18 19 17 17 18 17 16 16 16 16 16 15 16 17 18 17 16 15 13 13 13 12 12 13 13 13 13 13 12 12 12 11 10 9 9 8 8 8 9 11 13 14 15 15 14 12 9 6 5 6 7 9 11 11 10
6 6 9 11 11 13 16 17 18 18 17 17 17 17 15 16 18 19 17 15 14 16 18 18 15 14 12 11 12 12 12 13 13 13 12 12 12 12 12 11 9 9 9 8 8 9 9 10 11 12 13 14 13 12 10 8 6 6 6 8 9 10 10
7 10 12 13 13 13 14 16 16 17 17 16 17 17 17 18 20 20 18 15 14 15 17 18 16 13 12 11 11 11 12 11 11 11 11 12 12 12 11 10 9 9 9 9 9 9 10 10 10 11 11 11 11 11 10 9 9 8 7 7 8 9 10
9 13 15 14 14 14 15 15 15 16 16 16 17 17 18 19 20 19 18 16 15 15 16 17 16 14 13 13 12 11 11 10 9 10 11 11 11 10 10 9 9 10 9 8 9 9 9 10 9 10 10 10 10 10 11 11 11 11 10 9 8 9 10
11 13 15 14 14 14 15 16 16 16 16 16 18 19 19 19 18 17 17 16 16 16 17 17 16 15 14 14 13 12 11 10 10 11 12 12 11 10 9 9 10 10 9 8 8 9 9 9 9 9 9 9 9 10 11 11 11 12 12 10 9 9 9
10 11 13 14 15 16 16 17 18 18 18 18 19 20 19 18 16 16 16 15 15 16 17 18 17 16 15 14 13 12 11 11 11 12 13 13 12 10 10 10 10 10 9 9 8 7 7 6 6 7 8 10 12 12 12 12 12 12 12 11 10 9 9
9 10 12 14 16 18 18 18 19 18 18 20 20 20 19 17 15 16 15 14 14 15 17 17 17 17 16 15 14 14 12 11 11 12 13 13 12 12 12 12 11 10 10 9 8 7 6 5 3 3 5 8 11 13 14 13 12 12 12 11 10 9 9
10 10 12 15 17 19 19 18 19 18 18 20 21 20 19 17 15 16 16 14 14 16 16 17 17 16 16 15 15 15 14 12 11 12 13 14 13 13 14 13 12 12 12 12 11 10 9 8 7 6 5 3 3 7 10 11 12 12 11 12 11 10 10
10 11 12 15 16 18 19 19 19 20 20 20 22 21 19 17 16 16 16 14 14 15 16 16 16 15 15 16 16 16 16 14 13 12 13 15 15 16 16 16 16 16 15 14 13 11 10 9 9 9 9 8 6 3 4 7 9 11 11 11 11 11 12
10 11 12 14 14 15 17 19 20 22 21 20 21 20 18 17 18 17 16 15 15 16 16 16 15 13 13 14 15 17 18 16 15 15 16 17 18 18 18 18 17 16 15 13 12 11 11 10 9 10 10 9 8 6 4 2 3 5 7 9 9 9 10
8 11 11 11 11 11 13 16 18 20 19 18 17 17 18 19 19 18 17 16 15 16 16 15 13 12 12 13 15 18 19 18 17 18 19 19 20 19 19 18 17 16 14 13 12 11 11 10 10 10 10 10 10 9 7 6 4 3 2 2 4 3 3
4 9 10 9 10 10 10 12 14 14 15 15 15 16 19 20 19 17 17 16 16 16 15 14 12 12 13 14 16 19 20 20 20 20 20 20 19 18 18 17 17 16 14 13 11 11 10 10 9 9 8 8 8 8 7 7 6 6 5 4 3 3 4
0 4 7 8 9 10 8 8 10 11 13 15 15 17 20 20 18 17 16 17 17 16 15 14 13 13 14 15 18 20 22 23 23 22 21 20 18 17 16 16 16 16 15 13 12 10 9 8 8 8 8 8 7 6 5 5 5 5 5 5 5 5 6
4 3 4 6 8 9 8 7 8 10 12 13 15 17 18 18 18 18 17 17 17 16 16 15 15 16 16 18 20 23 24 25 24 23 21 19 17 16 15 14 15 15 14 14 12 11 9 8 8 8 8 9 8 7 6 6 5 5 4 4 5 5 5
9 7 6 7 8 8 8 7 7 10 12 13 15 16 16 17 17 17 17 17 16 16 17 17 17 18 19 20 23 25 26 26 25 24 22 20 18 17 16 14 14 14 13 12 12 11 9 8 9 10 10 10 9 9 9 8 6 6 5 4 4 4 4
14 11 9 10 11 10 10 10 10 12 14 15 16 17 16 16 16 16 17 18 18 18 19 19 19 21 22 23 24 26 27 26 25 24 22 21 20 18 17 15 13 12 11 11 11 10 8 8 10 11 11 11 12 11 10 8 7 6 6 5 5 5 5
17 14 12 11 13 13 14 15 15 15 16 17 18 19 18 17 18 17 17 18 18 20 21 20 19 20 21 23 24 26 27 26 25 24 22 21 20 18 17 15 13 12 12 11 11 10 9 8 10 11 10 11 13 13 11 9 8 7 6 6 6 6 5
17 16 14 13 14 16 17 18 17 16 17 18 20 22 21 20 20 19 17 17 17 17 18 19 19 19 18 19 20 21 22 20 20 22 21 18 19 19 17 16 15 13 12 12 11 11 10 9 10 11 10 10 12 13 11 9 9 8 6 6 5 5 5
16 17 15 13 15 17 18 19 20 19 19 19 21 24 24 23 23 21 19 17 16 15 14 14 16 17 18 19 16 12 12 14 15 18 19 17 16 17 16 16 16 14 12 12 11 11 12 11 10 11 11 12 13 12 10 10 9 8 7 7 6 6 6
16 16 15 13 14 16 18 22 23 24 24 23 24 25 24 24 25 25 23 21 18 17 14 12 12 11 13 15 12 8 9 14 16 16 18 18 17 17 17 16 17 15 13 13 12 13 13 13 12 14 15 15 14 13 12 12 10 8 8 8 8 8 8
18 16 15 14 14 16 18 21 24 25 25 25 26 25 24 23 25 26 26 25 22 19 17 15 14 12 10 11 12 12 14 17 17 16 19 20 20 20 19 18 17 16 13 13 13 14 14 14 15 16 17 16 14 13 12 11 10 9 9 9 9 9 9
22 19 17 16 15 15 16 17 20 22 23 23 23 23 22 21 22 23 25 25 23 21 20 19 18 17 16 16 17 17 17 18 16 16 19 20 20 19 19 18 17 14 13 13 13 14 15 15 16 16 15 14 13 12 11 11 11 10 10 11 11 11 10

ECMWFFLT1_925_spd_102.txt.gz
Wind_Speed
10 8 8 9 8 8 8 8 9 10 11 11 12 12 12 12 13 13 13 14 15 17 19 19 18 17 18 19 18 18 20 18 16 14 13 14 14 13 14 12 8 6 5 4 3 3 4 5 7 8 7 9 9 9 8 6 7 6 5 5 4 4 3
11 9 8 9 8 8 9 8 8 9 10 11 12 13 12 13 14 14 14 16 16 16 18 18 17 16 18 19 17 17 18 16 15 14 13 14 14 13 13 12 10 8 8 6 4 5 5 4 6 7 8 9 7 7 7 6 7 6 5 5 3 3 2
12 10 9 10 10 9 9 8 7 8 9 10 11 12 12 13 14 15 16 16 17 16 16 16 15 15 17 17 16 17 16 15 14 14 13 13 14 13 12 12 10 8 8 8 7 6 5 4 4 7 10 9 7 7 7 6 7 6 5 3 3 2 1
13 12 11 11 11 10 9 8 6 6 8 10 11 11 12 12 13 16 17 16 16 15 15 16 16 15 16 16 15 16 16 16 15 14 13 12 12 13 12 12 11 9 8 7 6 7 6 4 4 7 11 12 10 9 7 6 6 6 5 4 3 3 2
13 13 13 12 11 10 9 7 6 6 8 11 10 10 12 13 14 17 18 16 15 14 15 17 17 15 15 16 16 16 16 17 16 15 15 14 14 15 14 13 11 11 11 6 5 7 7 5 5 5 9 12 11 9 8 7 5 5 4 4 4 4 3
14 14 15 12 10 9 8 7 8 9 9 10 10 11 12 15 16 18 19 17 16 15 16 18 18 17 16 16 18 18 17 17 18 18 17 17 17 16 13 11 11 12 12 8 6 6 6 6 6 5 7 9 7 8 9 8 6 5 5 4 5 5 5
13 15 15 12 10 10 10 9 11 12 11 10 12 14 15 17 19 20 20 19 16 15 17 19 20 20 19 17 18 18 18 18 18 18 17 16 16 13 11 12 13 14 13 10 7 6 6 7 7 6 7 7 6 7 8 8 8 7 7 6 6 6 6
13 14 14 12 10 12 14 13 14 15 13 12 13 15 17 19 19 20 21 19 17 17 19 20 20 21 21 19 18 17 17 17 17 18 16 14 13 12 11 11 12 13 11 10 8 7 8 8 7 8 8 7 6 6 6 7 8 7 8 8 7 7 7
12 13 14 12 12 15 18 16 15 17 15 12 12 14 17 18 18 19 20 18 18 18 20 20 19 21 21 19 18 18 19 19 18 17 15 13 12 12 12 11 11 12 11 10 9 8 8 8 8 9 10 9 7 5 5 6 7 7 8 9 8 7 7
11 12 13 12 14 18 19 18 17 17 16 14 13 14 15 16 17 19 19 17 16 15 15 15 16 18 18 18 17 17 19 19 19 17 14 12 12 12 13 13 13 12 11 10 10 9 9 9 9 9 10 10 7 5 5 5 6 8 9 10 9 8 8
13 12 12 12 15 17 18 18 16 16 17 16 14 13 14 15 17 18 18 16 14 12 11 11 12 12 13 15 15 14 16 16 16 16 14 13 12 13 13 13 12 11 10 10 10 10 10 9 9 9 9 9 6 4 5 5 5 8 10 10 8 9 10
14 13 12 14 16 17 17 17 16 16 18 17 15 14 14 16 17 17 16 14 11 11 10 9 10 10 11 13 12 12 13 13 13 14 14 13 12 13 13 12 12 10 10 10 11 11 11 10 10 10 8 8 5 3 4 4 3 6 9 10 8 8 11
14 14 13 15 16 16 16 16 17 18 17 15 16 17 15 15 17 17 16 15 13 12 11 10 10 10 11 11 12 11 11 12 13 14 13 12 12 12 13 12 12 10 10 11 12 11 11 10 10 10 9 9 8 5 5 4 5 7 7 9 9 9 10
11 12 13 14 15 15 15 15 17 17 15 14 16 18 16 15 17 18 17 17 16 15 14 14 13 12 11 11 11 12 12 12 13 14 14 12 11 11 12 12 11 10 11 12 12 11 12 11 11 10 9 10 10 9 7 6 7 9 8 8 9 9 9
9 11 12 14 15 15 14 15 16 15 14 15 16 16 16 16 17 19 18 17 17 17 16 16 15 13 11 12 12 12 12 13 13 12 13 13 12 11 11 12 11 11 12 12 12 12 12 12 12 12 10 11 11 11 9 6 7 11 11 9 9 9 9
9 10 12 13 13 12 13 13 15 15 14 16 16 16 16 16 17 19 19 17 17 18 18 16 15 14 13 13 14 13 14 15 14 12 12 13 13 13 13 13 12 12 13 13 12 11 12 12 12 12 11 10 10 11 10 7 7 11 12 11 10 9 9
9 10 11 12 11 11 12 12 14 15 15 16 15 15 16 17 18 19 19 18 18 19 19 16 14 15 15 14 14 14 14 15 16 15 14 14 14 13 14 14 13 14 14 13 12 11 11 12 12 11 11 11 10 11 11 9 8 10 12 12 10 9 10
10 10 10 11 11 12 12 11 12 14 14 15 15 16 18 18 18 19 20 19 18 19 19 17 15 15 14 14 15 15 16 16 16 15 15 14 14 14 14 14 14 14 14 13 13 12 12 13 13 11 12 12 12 12 11 10 9 10 12 12 10 9 9
10 10 10 10 11 11 10 10 11 11 13 15 16 17 18 19 19 19 19 19 18 19 19 18 17 16 14 14 16 17 16 15 15 14 13 13 13 14 14 14 14 14 14 13 13 12 12 13 13 12 12 12 12 13 12 11 10 11 11 12 11 10 9
10 9 9 10 9 9 9 9 10 10 12 16 18 18 18 18 18 17 17 16 16 17 16 16 18 18 16 17 17 17 16 15 14 13 12 13 13 13 14 14 13 14 14 14 13 13 13 14 13 12 12 12 12 13 12 11 11 11 11 11 11 11 10
10 8 8 8 8 7 7 8 9 10 13 15 18 18 18 18 15 14 16 17 16 15 14 15 18 18 18 18 17 16 16 15 14 13 12 13 13 13 13 13 13 13 13 12 12 12 13 14 13 12 12 11 11 12 12 11 11 11 11 10 10 10 10
9 8 7 7 6 6 6 7 8 10 12 14 16 16 16 15 12 12 15 16 16 16 15 16 17 17 18 19 18 16 16 15 14 14 14 13 13 13 13 12 12 12 12 12 12 13 14 14 12 12 12 12 12 12 11 11 11 11 11 10 10 10 10
9 7 6 6 6 5 5 6 7 9 11 13 13 11 10 12 12 11 11 11 12 15 17 18 18 17 17 17 16 15 15 15 15 15 14 14 14 13 12 12 13 14 13 13 14 15 16 15 12 11 12 12 11 10 9 10 10 10 10 10 9 9 9
10 8 8 7 6 5 4 4 3 5 7 9 9 8 9 12 11 10 12 10 9 12 17 20 19 17 16 15 15 14 14 15 15 15 15 15 14 13 12 12 14 15 13 14 15 15 16 15 13 12 12 12 11 10 9 9 9 8 8 8 8 8 8
11 11 10 9 8 5 4 4 2 3 4 4 6 7 9 11 11 13 16 15 10 9 13 18 18 16 17 17 16 14 13 14 14 15 15 14 14 14 13 12 12 13 13 15 15 15 14 13 12 12 12 12 12 12 10 8 7 7 6 6 6 6 6
12 12 12 11 9 7 5 4 2 1 1 3 7 8 10 11 12 15 16 16 12 10 12 16 17 16 17 18 16 14 12 12 12 13 14 14 13 13 14 14 12 13 15 16 16 16 15 14 12 12 11 11 11 11 10 9 8 7 6 4 5 5 4
14 13 12 10 9 7 6 5 4 3 2 4 7 10 11 12 13 15 13 13 14 14 14 16 17 18 17 16 15 12 10 10 10 11 13 13 12 13 14 14 14 15 16 15 16 17 17 16 14 13 12 12 12 11 11 11 10 9 6 4 5 6 5
14 13 11 10 9 8 7 7 7 6 6 7 8 10 10 10 11 12 12 13 15 15 16 16 17 17 16 15 13 11 9 10 10 11 12 12 12 13 14 15 16 17 16 15 16 17 16 15 15 14 13 13 13 12 12 11 10 9 7 7 7 8 7
15 14 12 11 10 9 8 8 9 9 9 10 10 11 12 12 11 9 9 10 11 11 14 17 17 15 14 14 13 11 10 11 11 12 12 12 12 12 12 14 15 15 15 17 19 18 15 14 14 14 14 13 12 12 11 10 9 8 7 7 7 7 8
15 14 13 12 11 10 10 9 8 9 11 12 13 14 15 15 14 12 11 8 7 8 10 14 16 14 12 13 12 10 11 12 12 13 13 12 13 14 14 14 13 13 16 20 20 18 16 14 12 13 13 13 12 12 11 10 9 8 7 7 7 7 7
16 15 14 12 11 10 10 9 9 9 12 14 14 14 15 16 15 14 13 10 9 9 9 11 13 13 13 13 10 9 12 13 13 14 15 13 14 17 18 16 13 15 19 20 18 17 16 13 11 12 13 13 12 11 10 10 10 10 8 8 7 7 6
16 16 14 13 12 11 10 10 9 10 13 17 18 16 16 17 17 16 14 12 11 12 11 11 12 14 14 14 10 8 10 13 12 12 14 16 16 16 17 17 16 18 19 18 17 16 14 11 10 11 11 12 12 11 10 9 9 9 7 7 7 6 6
15 16 15 14 13 12 11 11 11 11 12 15 19 20 19 20 21 20 17 15 14 13 12 10 9 11 12 12 12 9 9 12 13 10 11 15 17 16 17 17 18 18 18 16 14 14 13 11 10 10 9 10 11 11 10 9 10 9 7 6 6 6 5
14 15 15 14 14 14 14 12 11 11 11 12 17 23 24 23 24 24 21 19 18 16 14 12 9 7 7 8 9 10 10 13 15 13 13 17 20 20 19 18 18 16 15 14 12 11 11 11 10 10 10 11 13 13 11 10 10 9 8 7 7 6 6
18 15 15 16 17 17 17 15 14 13 12 13 16 21 22 21 22 23 23 23 22 20 17 16 14 12 10 9 7 8 10 12 15 17 19 23 24 23 20 18 16 14 13 13 12 11 10 8 8 10 10 11 13 14 13 11 10 9 8 7 7 7 6
25 23 22 22 22 20 18 18 17 17 17 19 20 20 18 16 17 18 19 20 22 23 21 19 17 16 15 15 14 14 17 18 17 17 20 23 23 22 20 18 15 14 13 13 13 12 11 10 10 11 11 10 11 12 11 11 10 9 8 8 7 7 6
28 29 30 30 30 28 25 24 22 20 19 20 22 22 20 20 21 21 20 19 19 21 23 23 21 19 16 16 16 16 18 19 18 17 18 21 22 21 21 18 15 13 13 13 14 13 13 13 13 13 12 10 10 10 9 9 9 8 7 7 7 7 6

ECMWFFLT1_925_spd_105.txt.gz
Wind_Speed
9 8 7 7 8 7 5 5 6 6 7 9 11 12 12 12 12 12 11 11 11 11 13 16 17 17 16 15 16 16 14 14 14 14 12 15 17 16 17 16 11 7 6 8 6 4 4 5 7 8 8 8 10 11 10 9 11 10 8 7 6 6 6
10 9 9 8 7 6 5 5 7 8 9 10 12 13 14 13 13 12 12 11 12 13 13 15 15 16 16 14 15 18 18 16 16 15 12 14 16 15 17 16 11 8 7 7 8 7 5 5 6 5 8 9 8 10 11 11 11 9 8 8 7 6 6
11 10 10 9 7 5 6 7 9 11 12 13 14 14 15 16 15 13 13 14 14 14 14 15 16 17 17 15 13 16 19 19 18 17 15 15 15 13 14 14 11 9 8 8 11 11 7 5 5 7 10 11 8 9 11 12 12 10 8 8 8 7 6
13 12 11 10 7 5 7 11 14 15 15 15 16 15 15 16 16 14 14 14 13 13 16 18 18 18 18 16 14 15 17 17 17 18 16 14 12 10 10 11 10 10 9 9 10 11 9 6 6 7 11 13 11 11 11 11 12 10 9 8 8 7 6
15 15 13 10 7 7 11 17 18 18 17 17 18 17 16 16 15 14 14 13 13 16 18 18 18 17 16 16 16 17 18 16 16 17 16 14 12 9 8 9 10 10 11 9 8 9 9 9 9 7 10 12 10 10 12 13 11 10 10 9 9 8 7
15 15 14 11 9 10 16 21 21 19 18 18 18 18 18 16 14 14 14 15 17 18 18 18 18 16 16 16 16 18 18 17 17 16 15 14 13 10 10 11 11 11 12 9 8 9 7 7 10 8 9 11 8 9 13 13 12 11 10 9 9 9 8
15 14 13 14 14 15 20 23 23 21 19 19 19 18 17 16 14 14 14 14 16 18 18 18 19 18 17 16 16 17 18 17 17 15 15 15 13 12 12 14 14 13 11 10 9 9 7 8 10 10 9 9 8 10 12 12 12 11 9 9 10 9 9
14 14 12 13 14 17 21 23 22 21 20 19 19 18 16 16 14 14 15 14 15 18 18 18 19 20 19 16 15 14 14 14 15 16 16 15 13 14 14 13 13 12 12 11 10 9 9 10 10 13 14 9 7 8 9 11 12 11 11 11 11 11 11
13 14 14 13 15 18 20 20 20 22 22 20 18 16 15 16 16 15 14 15 17 20 20 19 20 20 19 16 13 12 10 11 13 15 15 14 13 14 15 14 12 12 13 12 11 11 11 10 9 12 15 12 8 7 7 8 8 9 12 12 12 13 12
13 15 16 16 17 18 18 18 20 22 22 21 18 16 16 16 17 16 15 16 18 20 20 18 18 19 20 18 15 13 11 11 12 13 13 13 12 13 15 15 14 15 13 11 11 11 11 12 10 10 12 11 10 8 6 7 7 9 13 12 12 14 13
14 15 16 17 18 18 17 18 20 20 22 22 19 16 16 16 17 17 17 16 17 19 19 18 18 19 19 18 16 14 12 11 12 12 12 13 14 14 14 15 15 15 15 13 12 11 11 13 12 10 10 10 11 8 6 6 5 8 12 13 13 14 14
14 15 16 18 18 18 18 19 20 20 21 22 20 18 16 17 18 18 18 16 16 17 17 18 20 21 20 18 15 13 12 12 12 13 12 14 16 15 15 17 17 16 18 17 13 11 12 13 12 9 8 9 9 8 8 7 5 7 11 12 12 13 14
14 15 16 16 17 18 20 20 21 22 22 23 21 18 17 18 18 17 17 17 17 17 17 18 21 22 21 19 18 15 12 11 13 13 12 13 16 15 16 20 19 17 19 18 14 14 14 13 13 11 9 11 10 10 11 9 6 8 12 12 14 13 13
14 15 15 13 14 17 19 21 22 21 22 23 21 18 18 18 17 16 16 17 19 20 19 19 19 20 21 20 19 17 14 13 13 13 12 14 16 16 17 20 19 17 20 18 16 16 15 13 12 11 11 13 12 12 14 12 8 8 10 13 14 13 13
15 15 14 13 14 15 17 20 20 18 19 21 21 18 17 18 17 16 18 18 19 20 20 20 19 19 20 19 18 17 15 15 15 14 14 16 17 17 18 19 18 17 17 16 15 15 14 13 12 11 11 11 11 10 13 14 11 10 11 13 13 13 13
14 15 15 14 14 14 16 19 18 17 19 21 21 19 18 17 17 17 19 19 19 19 18 19 21 20 19 18 18 17 17 18 18 16 16 16 17 17 17 18 17 15 15 16 15 13 13 12 11 11 11 11 11 10 11 13 12 12 13 14 13 13 13
14 15 15 14 14 14 15 17 16 16 18 19 19 18 16 15 15 17 18 17 16 16 16 17 19 20 18 18 18 18 18 18 18 18 18 17 17 17 16 17 17 15 15 17 14 12 14 15 12 11 10 11 12 11 10 11 12 13 15 14 13 13 13
15 15 15 15 15 14 15 16 15 14 16 16 16 17 16 13 13 16 17 16 15 14 15 17 18 19 19 19 18 17 18 18 17 19 19 17 19 20 19 18 17 16 16 15 14 13 17 17 14 12 12 13 13 12 12 11 12 14 14 14 13 13 14
15 16 15 15 16 14 14 15 14 14 14 14 15 18 17 13 11 12 13 14 14 11 13 16 16 15 17 18 17 17 18 16 15 19 19 19 21 20 17 17 18 17 15 14 13 13 15 16 14 13 13 13 13 13 13 11 12 14 14 13 13 13 13
15 15 15 14 15 14 14 13 12 12 13 14 14 15 14 12 11 10 7 9 12 10 12 14 14 12 12 13 14 14 16 15 14 17 19 19 20 17 14 14 16 15 14 13 13 12 11 10 9 9 9 9 11 12 12 12 13 13 13 13 13 12 12
15 14 13 13 14 14 14 13 11 11 12 13 13 12 10 10 10 8 6 6 10 11 13 15 14 12 10 10 11 11 12 12 11 14 16 17 17 15 12 11 11 11 12 13 12 12 10 8 9 10 8 6 9 12 11 11 12 13 13 13 12 12 12
15 14 13 12 12 13 13 13 12 11 10 9 11 10 7 8 8 7 7 7 10 13 15 14 12 13 11 10 11 12 12 11 11 13 15 14 14 14 13 12 11 11 12 13 12 11 10 9 11 14 11 8 11 13 10 10 12 13 12 12 12 12 11
14 14 14 12 12 12 13 13 12 11 10 9 11 9 6 6 7 5 3 6 10 12 15 13 11 13 13 11 13 15 14 13 14 14 12 12 14 14 12 13 12 11 11 12 11 11 10 8 11 13 12 11 13 13 9 9 12 12 11 11 11 12 11
14 14 15 14 14 13 13 13 12 11 10 9 11 10 6 5 5 4 3 6 10 9 11 13 12 13 13 13 14 14 14 14 14 13 13 16 18 16 14 13 13 11 10 11 12 11 11 11 11 12 11 10 12 12 10 9 9 10 11 11 9 8 10
15 14 15 15 14 14 14 13 13 13 11 9 10 9 5 3 4 3 3 5 8 8 8 12 13 11 10 11 11 12 12 12 11 14 19 20 18 15 14 13 13 12 11 13 13 13 13 13 12 12 12 11 10 9 8 6 5 5 6 8 9 5 5
15 15 15 14 14 14 14 14 13 13 12 9 8 8 5 3 3 3 2 3 6 7 9 13 14 11 8 8 8 8 8 9 11 14 17 16 14 14 13 13 13 12 13 14 13 15 16 14 12 12 11 10 8 8 7 6 7 4 2 6 12 8 3
15 15 15 14 15 15 15 15 14 13 11 9 8 9 7 6 4 2 1 2 3 5 8 13 14 12 10 10 10 8 7 9 11 10 10 10 10 13 13 12 12 13 15 13 13 15 16 13 12 10 9 9 8 8 8 9 10 8 4 5 12 10 8
15 15 15 14 15 15 15 16 15 13 12 11 11 11 10 9 8 7 6 4 1 3 4 8 13 13 11 11 11 9 6 7 8 8 7 6 7 11 12 13 13 15 15 14 14 15 15 14 13 13 13 12 11 11 10 10 9 10 8 8 11 11 10
16 15 15 15 15 15 15 16 15 13 12 12 13 15 15 14 13 12 12 10 8 9 7 1 8 10 9 9 9 8 5 4 7 8 7 7 7 7 9 12 14 15 15 15 16 15 14 14 14 14 14 14 15 14 13 12 9 8 8 8 8 9 10
16 16 15 15 15 15 15 15 15 13 12 12 14 17 18 18 18 18 18 17 15 14 13 7 4 4 4 6 6 3 1 2 5 7 9 12 10 9 9 11 12 14 17 17 17 16 15 14 13 13 15 15 15 15 15 13 10 8 8 8 8 9 9
16 16 15 15 15 15 15 16 15 14 13 12 13 15 17 19 22 23 22 20 19 18 16 12 8 6 3 0 2 3 3 4 6 10 12 13 13 13 14 14 14 16 18 17 16 15 15 14 13 12 14 15 14 14 14 12 12 12 10 10 9 8 7
16 16 15 15 15 15 15 15 15 14 13 13 13 13 15 19 24 26 24 22 21 20 17 15 12 9 8 7 3 7 8 6 7 10 11 12 13 14 16 17 17 17 18 16 13 11 11 12 12 11 11 12 12 12 11 11 11 11 10 10 11 11 10
17 16 15 15 15 15 15 15 16 15 14 13 14 14 15 18 21 24 26 25 24 21 18 16 13 9 10 12 11 13 12 9 9 13 14 14 14 16 18 19 18 17 17 15 11 9 9 10 10 10 10 11 12 11 10 9 7 7 8 10 9 9 8
17 17 16 15 15 16 17 16 16 16 15 14 14 15 17 18 20 22 26 29 28 25 21 18 15 10 8 9 11 12 12 11 12 16 19 18 18 19 21 20 18 15 15 13 11 12 12 12 12 12 13 14 13 11 11 9 7 7 9 9 7 6 6
20 19 18 17 16 17 17 17 18 17 16 16 17 18 19 20 20 22 25 28 30 29 25 21 20 18 13 10 9 10 13 14 12 15 20 23 22 22 23 22 19 16 14 14 12 12 13 13 13 14 14 13 13 13 13 11 8 8 9 8 6 5 5
25 25 25 24 23 20 18 18 19 20 20 19 20 22 21 21 21 21 22 24 27 29 29 27 24 23 21 19 16 15 16 17 16 19 24 27 25 23 23 22 19 16 15 15 14 13 12 12 13 14 14 13 12 13 13 11 9 8 8 7 6 5 4
27 30 32 33 33 30 26 23 21 20 21 22 24 25 25 25 25 23 22 22 22 23 27 30 30 29 26 25 23 20 19 19 20 23 27 28 25 23 22 20 18 17 17 17 16 16 16 15 15 15 14 14 13 12 11 10 9 8 7 5 5 5 4

ECMWFFLT1_925_spd_108.txt.gz
Wind_Speed
8 7 4 2 4 8 11 14 14 13 13 15 15 15 16 17 17 16 16 16 17 18 19 21 21 22 22 23 22 20 20 20 19 19 16 16 17 18 20 15 7 4 6 6 5 5 5 4 5 7 8 11 12 14 16 16 15 14 12 12 13 13 12
8 6 4 3 6 11 14 15 14 13 12 13 15 15 15 17 17 16 16 17 17 17 18 20 21 22 22 23 22 19 19 19 19 18 16 16 17 17 18 15 10 8 6 6 6 5 4 4 5 4 7 10 11 14 16 15 15 15 14 13 13 14 13
8 7 5 7 11 13 13 14 14 14 13 13 14 15 16 16 17 17 17 18 19 19 18 19 20 22 22 24 23 20 20 19 18 18 18 18 17 14 14 15 13 11 7 5 6 5 3 3 4 5 10 10 8 12 16 15 16 16 14 13 12 12 11
10 9 8 10 14 14 13 13 14 14 15 14 14 15 17 16 17 17 18 18 20 21 21 20 20 22 22 24 24 20 20 21 18 17 16 16 15 13 13 15 17 15 9 5 8 10 7 4 4 5 10 13 10 12 15 15 16 16 15 14 13 13 12
11 11 12 14 16 17 17 15 12 12 14 16 16 16 17 17 16 16 17 19 20 22 23 22 22 23 22 23 23 21 21 22 21 19 16 14 14 14 16 17 18 16 12 9 10 13 11 8 8 6 8 13 10 10 15 15 15 16 15 15 15 15 14
12 12 14 16 18 19 20 19 16 14 14 15 17 16 16 16 16 16 17 20 22 22 23 23 22 23 23 23 23 23 21 21 22 20 18 15 14 15 16 15 15 14 14 13 9 11 12 9 8 7 9 12 8 9 15 16 14 14 14 15 16 16 14
11 11 12 15 16 18 19 19 19 18 17 18 17 17 17 16 16 18 18 20 21 21 22 23 22 22 22 22 23 24 22 21 21 19 18 17 15 16 16 15 15 13 15 16 10 10 13 11 10 9 7 8 8 9 13 14 13 13 13 14 16 16 13
11 11 12 13 14 16 17 18 19 18 19 19 17 17 18 17 16 17 18 20 20 20 20 20 21 22 21 21 22 22 23 22 21 20 20 19 17 18 18 17 17 15 16 15 11 11 12 11 12 14 10 6 5 6 8 11 13 13 14 16 16 16 15
11 12 14 14 14 15 16 18 19 20 20 20 20 20 21 19 16 16 19 20 19 19 19 19 21 21 21 21 21 21 22 24 23 22 22 20 20 20 19 18 17 17 17 15 13 12 11 12 12 15 18 13 7 5 4 6 8 10 15 17 16 16 16
12 13 14 15 16 17 17 17 18 19 20 22 23 23 22 20 17 17 19 20 20 21 21 20 20 21 21 22 22 20 20 22 22 22 21 20 21 20 18 18 17 17 17 16 16 13 10 14 14 14 18 15 9 6 4 5 5 8 15 17 16 16 15
12 13 14 15 16 17 17 17 17 18 21 23 24 24 22 20 17 16 18 19 21 23 22 21 20 20 21 22 23 21 19 21 21 20 20 20 19 18 18 18 18 18 17 15 17 15 11 12 14 15 16 14 11 9 5 4 6 10 15 17 18 18 17
14 15 15 15 16 16 16 15 15 17 20 22 22 22 22 19 17 17 18 20 23 23 21 21 20 19 20 20 22 20 18 19 19 18 19 19 18 18 19 19 19 20 19 16 17 15 12 12 12 14 15 14 15 14 9 3 4 10 15 16 19 21 20
15 16 16 16 16 16 15 15 15 17 19 20 20 20 20 18 16 16 18 21 23 23 21 20 19 19 19 19 21 20 18 17 16 16 17 18 18 18 19 20 22 22 20 18 17 14 13 13 12 13 14 15 16 16 13 7 3 7 12 16 20 22 22
16 16 17 18 18 17 16 16 16 18 20 21 20 19 18 17 15 15 17 20 23 22 20 19 19 19 18 18 20 20 18 17 16 16 17 17 17 17 20 21 21 21 20 18 17 15 15 14 13 14 14 15 15 14 16 16 10 7 10 15 18 20 23
16 16 17 17 18 17 17 16 16 18 20 21 19 16 15 15 14 14 16 17 20 21 20 18 17 17 16 16 18 17 17 18 18 18 18 18 17 17 19 20 20 21 18 15 16 16 16 14 14 15 15 14 15 15 16 18 16 12 11 15 15 17 22
17 18 18 17 18 18 18 17 17 18 19 18 16 12 11 12 12 11 10 11 14 17 19 16 13 13 14 13 14 15 16 18 19 19 19 19 18 18 20 19 20 21 19 15 15 16 16 15 15 17 17 15 16 17 14 14 18 16 14 16 16 16 20
17 18 18 18 18 18 18 17 17 16 16 15 13 11 9 10 10 7 6 7 10 13 16 17 14 11 11 10 11 12 14 17 18 18 19 19 18 18 20 20 20 21 20 16 14 14 16 16 16 17 14 10 13 15 13 13 18 19 17 17 17 17 19
17 18 18 18 17 17 17 16 16 15 14 14 13 12 11 10 9 6 4 6 8 11 13 14 14 10 8 9 11 12 14 16 18 16 16 18 17 16 17 18 16 15 15 12 11 13 15 14 14 15 10 8 13 14 13 13 16 18 19 18 17 18 20
18 18 18 18 17 17 16 16 17 15 13 14 13 12 11 10 7 3 1 3 7 11 10 10 13 12 10 11 14 16 15 15 16 16 15 15 15 14 14 13 11 12 13 12 11 14 13 12 14 15 13 13 15 15 14 14 15 17 19 18 17 20 21
18 18 19 19 17 17 17 16 17 16 14 12 11 11 10 7 5 4 2 3 6 10 10 9 13 14 12 12 15 17 16 15 14 13 13 13 13 13 13 11 11 14 16 15 15 14 14 13 15 17 16 15 17 17 16 16 16 18 18 16 17 20 20
18 19 19 19 18 19 19 18 18 18 15 12 12 12 11 7 6 5 3 3 4 8 10 10 11 11 10 11 15 16 15 14 13 11 11 13 12 12 13 12 12 15 17 18 19 18 16 15 14 15 15 13 17 20 17 16 17 20 18 15 18 20 17
18 19 20 21 21 21 21 20 20 20 18 16 15 14 12 9 7 5 4 3 3 7 9 9 9 9 8 9 12 14 13 13 13 10 9 11 11 11 13 12 12 15 16 16 17 17 15 15 14 16 15 13 16 17 14 12 13 17 18 15 18 19 15
18 19 20 21 21 21 21 20 21 21 20 19 18 16 12 9 7 5 4 2 2 5 7 7 7 8 9 7 8 11 11 12 12 9 8 9 9 10 13 11 9 13 14 14 15 15 15 16 16 16 15 16 17 15 13 11 9 11 15 14 16 18 15
18 19 19 19 20 20 20 21 21 21 21 20 20 18 14 11 9 7 6 6 5 2 2 4 4 6 9 9 7 8 9 9 9 9 9 10 10 11 13 11 9 11 14 16 17 17 16 16 17 16 15 17 17 12 12 12 8 7 9 8 10 13 15
18 18 18 18 19 20 20 21 21 22 22 21 21 20 20 18 15 11 9 10 10 7 4 3 3 4 6 8 8 8 8 9 10 11 11 10 11 12 13 13 12 12 14 17 19 20 17 16 17 17 15 16 14 11 11 13 11 9 7 5 4 6 10
17 18 18 18 19 20 20 20 21 22 23 23 22 21 21 21 18 14 12 13 15 12 7 5 6 6 6 7 7 6 5 6 8 8 6 7 9 10 12 13 13 12 13 17 20 21 19 18 18 17 16 15 14 12 11 11 12 12 10 8 8 7 8
17 17 18 18 19 19 20 20 21 21 23 24 24 23 23 22 20 17 15 16 18 17 13 9 7 7 7 7 6 6 3 2 3 4 4 5 7 8 10 10 10 10 14 18 20 21 20 20 19 17 17 16 15 15 15 13 13 13 11 10 10 8 8
18 18 18 18 18 18 19 20 20 21 23 25 25 24 23 22 21 19 19 19 20 21 20 15 10 7 7 7 8 9 8 7 7 8 9 9 8 7 7 6 7 9 11 14 19 20 20 21 20 18 17 17 17 17 17 16 15 15 15 15 14 12 12
18 18 18 17 18 18 19 19 19 20 21 23 24 25 25 25 23 22 22 23 24 25 24 20 14 9 8 10 12 15 15 14 14 15 15 14 12 9 6 6 8 10 9 12 17 19 19 20 20 19 19 19 19 19 19 18 16 17 18 19 16 15 15
17 17 17 17 18 19 19 19 19 19 19 21 23 24 26 28 29 28 27 27 28 28 27 26 21 15 13 14 15 19 24 23 22 23 23 21 19 17 14 10 10 10 10 13 18 19 18 18 19 21 22 22 22 22 22 21 18 17 17 17 16 15 14
17 17 17 18 18 19 20 20 19 19 19 21 22 23 24 26 30 34 33 32 31 30 30 30 28 22 19 18 18 22 28 28 26 27 29 29 27 25 23 18 14 13 13 16 21 21 18 18 19 21 22 23 23 23 22 21 20 20 18 16 14 13 12
17 17 17 18 18 19 20 20 20 19 19 20 20 21 23 26 31 36 37 36 35 33 31 30 28 24 22 21 21 22 26 28 28 29 31 31 30 29 29 26 23 19 16 16 20 21 20 20 20 19 20 21 21 20 18 17 18 19 19 18 15 13 12
19 18 17 18 19 20 20 21 21 21 20 19 20 20 22 26 30 35 39 41 39 37 34 31 28 24 22 21 21 21 24 27 29 31 32 32 31 32 32 32 30 26 22 20 20 19 19 21 21 20 20 20 20 17 13 11 14 16 17 17 15 14 15
20 20 18 18 20 21 22 22 22 22 21 20 20 21 21 24 28 32 38 44 44 41 37 34 30 26 23 22 22 23 26 28 29 31 33 33 33 33 32 32 31 28 27 28 27 26 24 24 24 24 22 20 18 16 14 14 15 16 16 16 15 15 15
23 22 21 21 22 22 23 23 23 23 23 23 25 25 24 24 26 28 32 39 43 44 42 38 34 31 27 25 24 24 28 30 29 30 33 34 33 32 32 30 28 26 25 27 27 28 28 28 28 27 24 22 19 17 17 17 16 16 16 16 15 14 14
30 30 29 28 28 27 25 25 26 26 27 29 33 32 30 31 33 33 33 33 34 38 41 41 39 36 34 32 30 29 31 32 30 31 35 36 34 33 32 30 27 25 24 25 24 25 26 28 28 26 23 22 20 19 18 16 15 15 15 13 12 13 13
32 36 37 34 33 32 30 27 27 27 29 34 38 35 31 34 38 39 37 36 33 33 35 38 39 39 37 36 35 35 34 34 34 35 37 36 33 32 31 30 28 26 26 25 25 25 25 26 26 25 22 21 21 20 19 17 15 14 13 13 13 14 16

ECMWFFLT1_925_spd_111.txt.gz
Wind_Speed
10 11 13 14 15 16 17 17 18 20 20 21 21 21 17 13 13 16 17 18 21 23 24 25 26 27 27 26 25 25 24 24 24 23 24 23 21 21 23 23 17 10 9 9 10 10 5 3 7 10 12 15 17 17 16 17 17 16 18 18 19 19 17
9 10 10 9 10 10 12 13 16 18 18 18 17 14 11 11 14 19 21 21 22 23 24 25 25 26 28 28 27 26 25 25 25 25 24 25 25 22 22 24 20 15 14 10 10 10 7 4 5 5 8 11 13 17 17 17 17 16 17 18 19 19 18
9 10 10 6 5 6 9 11 13 16 17 16 12 9 12 14 17 21 23 24 23 21 22 24 25 26 26 27 27 26 27 27 26 26 25 24 24 23 22 23 22 18 13 8 9 10 7 6 5 5 10 11 9 13 17 19 19 17 16 17 17 19 18
9 10 11 10 10 11 12 13 14 15 16 15 13 13 16 16 15 19 21 23 22 20 22 23 25 26 25 25 26 26 27 27 26 26 26 25 23 23 23 24 26 24 18 12 14 16 10 6 6 5 10 13 11 13 17 20 21 18 16 17 17 18 18
9 10 10 11 12 13 14 15 14 15 15 15 15 16 16 15 15 19 21 23 22 21 23 25 26 26 25 24 25 26 27 26 25 26 26 26 26 26 26 27 28 28 25 19 19 21 17 14 11 6 9 14 10 10 17 19 19 18 18 19 18 17 17
5 6 7 9 10 12 13 14 15 15 14 14 15 16 15 16 18 20 22 23 22 20 23 26 26 24 24 24 24 24 25 24 24 25 26 27 29 28 27 27 26 26 26 23 20 21 21 18 15 9 10 15 10 8 15 18 16 17 18 19 19 18 18
6 7 8 8 9 10 12 14 15 14 13 13 15 16 16 18 20 21 22 22 22 21 22 26 26 24 23 25 24 22 24 25 24 25 26 28 29 28 26 26 26 25 26 25 22 20 20 19 18 15 12 11 10 10 13 16 16 15 16 19 19 19 19
9 9 10 11 11 12 12 14 14 14 13 13 16 17 17 20 21 21 22 22 24 23 22 24 27 25 23 24 24 22 22 24 24 24 26 26 27 27 26 26 26 26 26 26 22 19 20 20 20 22 19 10 6 7 9 12 15 15 17 19 19 19 20
11 12 13 13 13 12 11 12 12 12 13 14 16 17 18 20 20 21 22 21 23 23 20 22 26 24 20 22 24 22 22 23 24 25 25 25 25 25 24 25 26 26 26 26 23 20 20 21 20 24 26 18 9 5 5 7 9 12 17 19 18 20 22
13 14 14 14 14 13 12 11 12 13 14 15 16 17 18 19 20 21 21 19 19 19 17 18 21 20 18 21 23 22 22 21 21 23 24 24 24 25 25 25 25 25 24 23 23 21 19 21 21 22 27 27 19 10 5 6 6 9 16 19 19 20 23
14 15 15 15 15 15 15 13 13 14 15 16 17 17 16 17 19 21 20 16 15 16 16 15 16 17 18 20 21 22 22 21 21 22 23 24 24 24 25 25 24 24 22 21 21 21 19 19 20 21 25 27 25 16 10 7 6 12 18 20 21 23 24
15 15 15 16 16 16 16 16 15 16 16 17 18 17 16 16 17 19 17 14 13 14 16 16 15 16 19 20 21 21 20 20 22 22 22 24 25 24 24 24 24 23 21 21 21 20 19 19 19 21 23 26 24 19 16 11 5 12 20 20 22 26 25
16 15 15 15 16 16 17 18 16 16 17 18 18 17 16 16 17 17 17 16 15 14 14 15 17 16 16 17 20 21 17 16 22 24 22 22 23 24 24 24 25 23 20 21 21 20 19 19 20 20 22 26 24 19 19 16 8 10 18 20 24 28 26
15 14 14 15 16 16 18 18 16 15 17 17 16 16 16 16 16 17 17 18 18 17 14 14 15 15 14 14 18 20 17 16 20 23 22 21 22 24 24 25 25 23 21 21 22 21 19 18 19 21 22 25 24 21 21 19 13 10 13 20 27 28 26
15 15 16 17 18 18 18 18 17 17 18 18 16 15 15 16 15 16 18 18 18 17 15 12 11 12 14 16 18 19 18 19 19 19 20 22 22 23 23 24 23 22 23 23 22 21 20 19 19 21 23 23 23 23 22 20 20 15 12 20 28 27 26
17 18 19 19 19 18 18 18 18 18 18 17 16 15 15 15 15 16 17 16 15 14 13 11 11 12 15 17 18 18 20 22 22 19 19 21 22 22 22 22 22 21 22 23 23 20 18 17 15 15 19 20 19 20 19 17 22 22 17 20 27 29 28
19 20 20 19 19 19 19 18 18 18 18 17 16 16 15 14 15 15 15 14 12 10 9 9 10 11 12 13 16 18 18 21 22 21 20 20 20 21 20 19 18 19 20 21 21 19 16 13 12 14 17 18 18 18 18 18 21 23 22 22 25 29 31
21 22 21 21 20 20 20 20 19 18 18 17 16 16 15 14 13 14 14 13 11 9 7 8 11 12 10 10 14 16 16 18 21 23 22 20 18 18 17 16 16 17 20 20 17 16 18 16 15 17 17 16 17 18 19 20 18 16 19 23 25 28 29
22 23 22 22 21 20 20 20 20 20 19 19 18 17 16 14 12 13 13 11 10 8 5 5 8 10 10 11 13 14 14 16 18 20 21 19 16 14 14 16 19 18 19 20 17 14 17 19 18 19 19 18 19 19 19 19 17 15 14 16 21 25 25
22 22 22 22 21 21 20 19 20 20 21 21 21 19 17 16 14 13 12 10 9 6 2 3 6 8 9 11 13 14 14 15 16 16 16 15 13 13 14 17 19 18 18 20 19 17 18 20 20 19 20 21 21 20 20 20 19 22 21 14 15 22 24
21 21 21 22 22 22 21 21 20 20 21 22 22 20 18 17 16 15 12 11 9 5 1 3 6 7 7 8 11 13 13 14 13 12 11 10 11 14 15 15 15 16 16 18 20 20 19 20 20 19 18 19 20 20 20 18 16 22 28 20 16 21 24
21 20 20 22 22 22 22 22 22 22 22 23 23 22 21 20 19 18 16 12 8 3 0 2 4 5 5 6 9 10 11 12 11 11 11 12 13 15 15 13 14 15 15 16 17 17 17 18 19 20 20 19 20 20 19 17 16 21 26 21 18 21 22
20 20 21 22 21 21 22 23 23 24 23 23 24 24 23 23 22 21 18 15 11 6 1 3 4 6 5 4 5 7 7 8 10 10 10 12 14 14 13 13 13 13 14 15 15 14 15 15 16 18 20 19 20 21 20 19 20 22 23 20 20 22 20
20 21 22 22 21 20 21 23 24 24 23 23 24 24 24 23 23 23 20 17 15 11 6 1 2 5 5 2 3 5 5 5 8 7 7 8 11 11 11 11 11 11 12 13 15 15 14 13 14 15 16 17 18 19 20 20 20 23 23 22 22 23 21
20 21 22 21 20 20 21 24 25 25 24 24 24 24 24 22 22 23 22 19 16 13 9 6 5 5 4 5 6 5 6 7 7 8 6 6 8 9 8 7 8 9 10 11 13 16 15 13 14 14 14 18 19 19 20 17 17 21 25 24 23 22 23
20 21 21 20 20 21 23 25 26 26 26 26 27 27 25 23 23 23 23 21 17 14 11 9 8 8 8 9 10 11 13 12 10 10 9 7 7 7 6 5 6 7 7 9 12 15 16 16 17 18 19 21 20 19 20 17 15 17 21 23 23 20 19
21 21 20 21 21 22 23 25 26 26 27 28 30 30 29 27 26 25 24 23 19 15 14 13 12 12 13 14 14 15 17 17 16 14 12 10 8 7 5 4 7 8 8 12 17 19 20 20 21 21 21 18 15 14 15 13 12 13 14 16 18 16 15
20 21 21 21 22 23 23 24 25 26 27 29 29 30 30 30 29 29 28 26 24 20 18 20 19 17 17 17 16 17 18 19 20 20 18 16 13 11 9 8 9 9 10 16 21 21 20 19 20 21 19 17 14 13 13 12 10 11 12 12 12 12 12
20 20 21 22 22 22 23 24 25 25 27 29 30 31 32 33 32 33 32 31 30 26 21 23 25 23 20 19 19 20 22 24 25 26 24 22 19 16 14 12 11 9 12 17 17 17 20 22 22 23 22 21 20 18 18 16 12 11 13 12 11 11 10
20 21 22 22 22 22 22 23 24 25 27 29 31 32 33 34 35 35 34 34 33 29 25 26 28 27 23 22 24 27 29 31 33 33 33 31 29 27 23 17 12 12 16 18 15 15 19 22 24 27 27 27 27 26 25 22 18 17 17 17 17 15 14
20 21 22 22 23 23 23 23 22 23 26 28 30 30 32 35 38 38 36 35 34 32 30 29 30 30 27 26 28 31 34 36 38 38 38 38 36 36 34 28 20 17 18 18 16 15 16 18 21 26 29 30 30 30 28 25 23 22 21 20 18 16 15
21 22 22 22 22 22 23 23 22 23 24 25 26 28 32 36 39 39 38 37 36 34 33 31 30 31 32 31 31 32 33 36 39 38 39 40 40 39 38 36 31 26 23 22 20 18 17 18 20 22 26 31 31 28 25 23 23 22 21 20 18 17 16
21 22 23 23 23 23 23 23 24 25 25 25 26 28 30 34 38 39 40 42 41 39 36 34 31 31 32 32 32 33 33 34 37 38 38 39 40 40 40 38 36 34 32 30 28 25 23 23 23 22 23 25 25 22 21 21 21 21 20 21 20 19 18
22 23 24 25 25 25 24 25 25 26 27 28 29 30 30 32 35 37 40 44 45 44 41 38 35 32 31 30 31 33 34 33 33 35 37 37 38 38 38 37 36 36 36 36 34 31 29 27 26 25 24 23 21 20 21 22 22 22 22 22 22 21 20
25 25 26 27 28 27 25 25 26 26 27 29 31 31 30 31 33 35 37 41 43 44 44 42 40 37 35 34 34 35 35 33 33 36 38 37 36 35 34 34 34 33 34 34 34 33 32 30 30 29 26 25 24 22 22 23 22 22 23 23 23 23 21
28 28 28 28 29 28 27 26 26 26 26 28 30 30 29 29 31 32 34 35 37 39 41 42 41 40 39 38 38 38 37 37 37 39 40 38 36 35 33 32 30 29 30 31 31 30 30 30 30 29 26 25 24 23 22 22 22 23 24 24 24 23 21
31 30 30 30 31 30 28 27 28 28 28 29 30 29 28 28 30 30 30 31 31 32 34 37 38 39 39 38 38 38 38 37 37 38 39 37 34 34 33 31 29 27 27 28 28 28 28 28 28 27 26 24 24 23 23 24 24 24 25 25 24 22 19

ECMWFFLT1_925_spd_114.txt.gz
Wind_Speed
12 14 14 14 16 18 18 16 13 10 9 13 16 17 19 20 21 22 23 24 24 25 25 25 26 26 26 26 25 26 25 25 25 25 24 21 20 23 26 26 21 15 12 13 12 10 5 4 8 13 18 23 25 27 27 26 25 24 23 24 22 20 20
11 12 11 11 11 12 13 12 10 7 5 7 11 15 18 20 21 23 24 25 27 27 27 27 27 26 27 27 26 26 26 27 26 25 24 23 22 23 25 26 24 19 15 13 13 11 7 6 6 6 11 17 20 25 26 25 25 25 24 24 24 23 21
11 11 10 10 10 10 11 11 10 9 8 7 8 12 16 18 20 22 24 25 26 28 29 29 28 27 27 28 28 27 26 27 27 25 25 24 25 25 26 26 24 20 15 11 12 12 9 8 6 6 11 13 12 18 24 25 24 24 24 24 24 24 22
11 11 12 12 13 12 12 11 10 9 9 9 8 10 13 15 17 20 22 24 26 27 29 29 28 28 28 29 28 26 26 27 26 26 26 26 26 26 27 27 27 26 20 14 17 18 11 7 6 6 11 15 13 15 21 24 24 23 23 24 24 24 23
9 9 10 11 12 12 12 11 10 9 9 9 8 10 13 14 16 18 20 22 24 27 28 27 26 27 28 29 28 25 25 25 26 26 27 26 25 25 26 28 29 30 27 23 24 25 19 15 12 6 9 15 12 12 18 22 22 23 23 24 25 25 24
4 5 7 9 11 12 13 12 12 12 11 10 10 11 13 15 17 18 19 21 23 25 27 27 27 27 27 28 27 26 25 24 25 26 26 26 25 25 25 27 28 28 28 28 27 26 23 20 16 9 10 15 11 9 15 20 20 20 22 24 24 24 25
4 5 7 9 10 12 13 13 13 12 11 10 10 12 14 15 17 18 19 21 22 23 25 27 28 28 26 26 26 26 26 23 23 25 26 25 24 24 24 25 26 27 28 28 27 27 25 22 19 13 11 11 10 9 11 17 19 16 18 23 24 23 24
4 5 6 7 9 10 11 11 10 10 10 10 11 13 15 16 18 19 20 21 21 22 23 25 27 28 26 26 25 25 26 24 22 24 24 24 23 23 24 24 24 25 27 28 28 27 27 26 24 22 18 9 6 7 7 11 15 16 18 21 23 23 22
4 5 6 8 9 10 11 10 10 10 10 11 12 14 16 18 19 20 20 21 21 21 22 24 26 27 26 25 24 24 26 25 21 22 23 23 24 23 24 24 23 24 26 28 29 28 29 28 26 26 26 17 8 5 4 6 8 12 18 21 20 22 22
5 6 7 9 10 10 10 11 12 12 12 13 14 15 17 18 19 20 20 21 21 21 22 22 23 24 23 24 24 24 25 25 23 22 22 23 24 24 23 23 23 25 26 26 29 29 27 26 25 25 27 26 18 9 4 5 5 8 16 20 20 21 23
5 7 8 10 10 10 11 12 13 13 13 14 15 16 17 17 18 18 19 20 21 21 21 20 20 21 21 22 24 23 24 25 24 23 23 23 23 23 23 22 21 24 25 25 27 28 26 24 24 24 26 28 26 17 10 7 7 11 17 20 21 23 24
6 7 9 9 10 10 11 12 13 13 13 14 15 16 16 16 17 17 17 18 19 19 19 18 19 20 20 22 23 24 24 24 23 24 24 23 23 23 23 22 21 23 25 25 25 26 26 23 22 24 25 28 29 26 21 12 6 11 20 21 20 23 26
7 7 8 9 9 10 11 12 13 13 14 14 14 14 15 15 16 16 16 17 17 17 17 16 17 17 18 20 22 23 23 22 22 24 24 23 23 23 23 22 22 23 23 23 24 24 24 23 23 23 24 27 27 25 25 19 8 8 19 23 22 22 25
9 10 10 10 10 10 10 11 12 13 13 13 13 13 14 15 15 16 16 16 16 16 16 15 15 15 16 18 19 20 21 22 23 24 23 22 23 24 24 23 22 22 21 21 22 22 21 23 23 21 20 24 22 17 18 17 10 7 13 21 23 22 24
11 12 12 13 13 11 11 11 12 13 13 13 13 13 14 15 16 15 14 15 15 14 14 14 13 14 15 17 19 20 21 23 23 23 22 22 23 23 23 23 21 20 20 21 22 21 20 21 21 20 21 24 23 17 16 16 13 10 10 17 23 23 25
13 13 13 14 13 12 12 12 13 13 14 14 14 13 14 15 15 14 13 14 15 14 13 13 12 12 14 15 17 20 22 24 24 22 22 23 23 21 20 20 20 19 18 20 20 20 21 23 23 24 24 25 25 22 19 17 16 14 12 15 22 25 27
14 14 14 14 14 13 13 12 12 13 14 16 15 14 14 14 13 13 13 14 13 12 12 12 12 12 13 14 16 19 22 23 23 22 22 21 19 18 18 18 19 20 19 20 18 16 19 23 25 24 22 23 23 22 19 16 17 18 16 16 20 25 29
16 16 16 15 15 14 13 12 13 13 15 16 16 15 16 15 15 14 14 12 10 10 12 11 11 11 12 12 13 18 20 20 21 19 18 17 16 15 17 17 18 18 18 20 20 18 18 21 22 21 20 22 21 21 22 19 17 19 18 17 18 20 24
17 17 17 16 15 14 13 13 14 15 15 15 15 16 16 15 15 15 14 12 10 10 12 11 9 10 10 9 10 14 17 17 16 13 11 14 16 15 17 17 16 16 17 20 23 22 21 21 21 20 21 23 22 22 24 23 22 23 20 17 18 19 20
17 17 17 17 16 15 15 15 16 16 15 15 15 16 16 15 15 15 14 13 11 9 9 9 8 7 7 7 8 9 9 10 10 9 11 15 17 16 16 16 16 17 18 20 20 22 23 23 22 22 22 23 23 23 25 26 26 26 22 19 21 23 24
17 17 17 17 16 16 16 16 16 15 14 14 15 16 16 15 14 14 13 13 11 8 6 7 7 5 5 5 7 6 4 5 7 8 11 14 15 16 15 15 16 17 17 18 18 21 23 24 24 23 22 22 22 22 23 24 24 24 22 21 23 24 24
18 18 18 17 17 17 17 17 16 15 14 14 14 14 14 15 15 14 14 13 13 10 7 7 6 4 4 4 5 5 4 5 6 7 8 10 10 12 12 13 14 13 14 16 19 20 21 23 24 24 24 24 25 24 22 22 23 24 23 22 22 21 21
17 17 18 18 19 19 19 19 19 19 18 17 16 15 15 15 15 15 16 17 16 14 11 10 7 5 4 5 4 3 3 4 4 5 7 8 7 9 10 11 11 9 9 13 16 17 17 18 20 23 24 27 29 29 27 26 26 28 27 24 24 24 21
17 17 18 19 20 21 21 21 22 22 22 21 20 18 17 17 16 16 18 19 19 17 15 14 12 8 7 7 4 3 4 3 1 4 6 6 5 7 8 8 7 5 6 9 12 14 14 14 17 20 23 25 26 27 29 29 28 30 29 26 25 26 24
18 19 19 19 20 21 21 22 23 23 24 24 23 21 20 20 19 20 21 22 22 19 16 17 17 15 13 12 11 10 11 10 7 3 1 2 2 3 5 6 6 5 5 8 12 14 13 13 16 18 20 22 21 21 24 26 26 28 28 26 25 25 24
19 20 19 19 20 21 22 23 22 23 24 25 26 26 25 24 24 24 26 27 26 22 20 21 20 17 15 14 12 13 14 13 12 10 7 4 3 3 2 2 4 4 5 8 12 14 13 14 15 15 16 18 18 17 17 17 21 25 26 24 25 26 24
19 19 19 19 21 22 23 23 22 22 24 26 28 29 29 29 29 29 30 31 29 26 25 25 22 19 18 17 16 16 17 16 15 14 12 10 7 7 6 4 3 4 4 7 10 13 14 14 14 12 12 13 14 14 11 7 11 19 21 20 23 24 21
20 19 19 20 22 22 23 24 23 24 25 26 27 28 30 32 33 33 33 33 32 30 29 28 25 22 21 20 21 22 22 21 20 18 17 14 11 10 11 11 11 11 9 8 8 10 12 13 13 12 13 14 13 13 12 9 7 9 12 13 15 16 14
20 20 20 21 22 22 23 23 24 24 26 28 29 30 32 33 34 34 34 33 33 32 30 28 28 27 24 23 24 26 26 26 26 25 23 21 18 15 13 15 15 14 12 11 9 10 13 14 16 17 18 18 18 16 15 16 16 15 17 18 17 15 15
20 20 21 22 22 21 21 22 22 24 27 30 31 32 33 35 35 35 35 33 32 32 30 28 29 30 29 28 28 30 31 31 33 33 31 29 27 22 18 17 17 16 15 14 13 13 15 18 21 24 26 27 27 26 24 22 21 19 19 20 19 16 16
21 21 22 23 22 21 21 21 22 24 27 30 31 31 33 37 38 38 37 35 33 32 30 27 27 30 31 31 32 33 34 36 37 37 36 35 34 31 25 21 21 21 20 19 18 18 20 23 26 29 30 31 31 28 24 23 24 24 22 22 20 17 17
21 22 22 23 22 22 21 21 22 25 28 30 31 32 35 38 39 39 39 39 37 36 34 29 26 27 29 31 32 32 34 37 38 37 37 38 38 37 33 30 28 26 24 23 23 24 26 28 29 29 29 30 29 24 21 21 24 25 24 23 21 18 18
22 22 23 23 23 22 22 22 23 26 27 29 31 34 35 37 38 38 39 41 40 39 38 36 32 30 30 31 33 34 36 37 35 36 38 39 39 40 38 36 34 30 28 27 27 28 29 29 29 28 29 30 28 25 24 26 27 27 27 27 25 22 22
23 23 23 24 24 23 22 22 24 26 27 28 31 33 33 34 36 36 37 39 41 40 40 39 37 36 35 35 35 37 39 37 35 37 40 40 38 38 38 38 36 33 30 30 30 30 29 28 29 30 30 30 28 26 27 28 28 28 28 28 27 26 24
24 24 23 24 24 23 23 23 24 25 27 28 30 31 31 32 33 34 35 36 37 38 39 40 39 38 37 37 37 37 38 36 35 37 40 39 37 37 37 36 36 34 32 32 31 31 30 29 29 30 28 27 26 25 27 28 27 28 28 28 28 27 26
25 25 25 25 26 25 25 26 26 26 27 29 30 29 28 29 31 33 33 33 34 34 36 37 38 38 37 37 37 37 37 36 35 37 38 36 34 33 32 32 32 32 33 33 32 32 32 31 30 28 26 24 24 23 24 25 26 27 29 29 29 28 27
25 25 25 26 27 26 26 27 28 27 28 29 30 29 27 28 30 31 32 32 32 32 32 33 34 34 34 35 35 36 36 36 36 36 37 35 33 32 30 29 28 28 29 30 31 31 32 32 31 29 27 25 25 24 24 25 26 27 28 28 27 26 24

ECMWFFLT1_925_spd_117.txt.gz
Wind_Speed
7 8 7 6 7 7 9 11 13 14 14 15 17 17 18 19 19 20 21 22 23 23 23 23 22 22 22 21 21 21 21 21 22 22 21 19 19 21 24 24 22 19 14 12 12 7 3 3 8 13 18 23 25 27 29 28 27 26 24 24 23 22 20
7 7 6 6 6 6 8 10 13 14 14 16 17 17 16 17 18 18 19 20 22 22 23 24 26 25 24 23 22 21 22 23 22 22 23 23 23 23 22 22 21 20 19 17 16 13 8 4 4 6 11 15 16 22 27 27 27 27 26 26 25 24 22
9 9 8 7 7 7 7 9 11 13 14 14 15 14 14 15 16 17 18 18 20 21 23 25 26 27 26 24 24 23 23 24 23 23 24 25 26 26 25 23 20 18 16 14 14 15 10 6 5 5 10 12 10 17 25 28 28 28 28 27 26 25 24
10 9 8 7 7 6 6 7 9 11 11 11 11 12 13 14 15 16 17 19 19 21 22 24 25 26 26 25 24 24 24 24 24 25 26 27 26 26 25 25 24 22 19 16 17 18 13 7 6 4 10 15 13 14 22 27 29 29 29 28 27 27 25
7 7 6 6 7 6 7 8 9 10 11 11 10 11 13 15 16 17 18 19 21 21 22 23 24 25 25 25 25 24 24 25 25 25 25 25 26 27 26 26 28 27 27 25 23 23 19 15 11 5 8 14 12 11 18 24 26 29 31 30 28 28 26
3 4 5 6 7 7 8 8 9 9 9 10 10 11 14 16 16 17 18 20 21 22 22 22 23 25 25 25 25 26 26 27 26 26 26 25 26 28 27 27 28 29 30 29 25 23 23 19 12 6 8 13 11 8 13 20 23 24 28 31 29 27 27
2 4 5 6 6 7 7 7 7 7 8 9 10 12 15 16 17 18 19 20 21 21 21 21 22 23 24 24 25 26 27 28 26 26 26 26 28 30 29 27 28 29 30 30 28 26 25 22 16 11 9 9 9 8 9 18 21 18 19 26 29 27 26
3 4 5 6 7 7 8 8 8 8 9 10 11 13 15 16 18 19 20 21 21 20 20 20 21 21 22 24 25 26 27 27 26 26 26 26 27 29 29 28 27 27 28 29 28 27 27 26 23 21 15 8 6 6 5 11 17 17 17 20 25 28 27
4 6 7 8 8 8 9 9 10 10 11 11 12 14 15 16 18 19 20 21 20 19 18 18 21 22 22 23 24 25 26 26 25 26 25 25 26 26 28 28 26 25 27 27 26 27 27 27 24 23 21 14 7 4 4 6 8 12 18 19 20 26 28
6 7 8 9 10 10 10 10 10 11 11 11 12 14 15 16 17 17 18 19 18 17 17 17 20 22 22 22 23 24 25 24 23 24 25 25 25 26 27 27 25 25 25 24 24 25 25 26 24 21 22 21 14 7 4 4 4 7 16 21 20 22 27
6 7 8 9 10 9 9 10 10 11 11 11 12 14 15 15 16 16 17 17 17 17 17 17 18 19 19 20 23 24 23 22 21 23 24 24 25 25 24 24 24 25 23 22 22 23 23 24 24 23 23 23 20 13 8 6 6 10 16 21 22 23 26
7 7 8 8 7 8 9 11 12 12 12 13 13 13 14 14 15 16 16 16 16 16 17 16 17 18 18 19 22 23 22 20 20 22 22 22 24 24 23 22 23 24 23 22 21 22 22 22 24 25 24 24 22 16 12 8 5 10 18 21 23 25 25
5 5 5 6 6 8 9 11 12 13 13 13 13 13 14 15 16 17 18 17 17 16 17 16 16 17 17 17 19 20 19 18 19 21 21 21 22 23 23 22 22 23 22 22 22 21 21 20 21 23 23 24 23 18 15 12 4 4 16 22 23 24 24
4 4 5 6 7 8 10 11 12 12 13 14 15 15 16 16 16 18 18 18 17 17 17 16 16 16 15 15 16 17 18 17 17 18 19 19 21 22 23 21 21 22 21 21 21 21 20 19 19 20 20 21 23 21 19 16 7 3 10 19 22 23 23
5 6 6 7 9 10 10 12 12 13 13 14 16 17 18 18 17 17 17 18 18 17 16 14 14 15 14 14 14 14 15 17 17 17 17 18 20 21 21 20 20 20 20 20 20 19 19 19 18 19 20 20 20 20 19 17 13 8 9 15 21 22 23
6 7 9 10 11 12 11 11 12 12 13 14 16 17 17 17 16 16 16 17 16 14 13 13 13 13 14 13 13 13 13 15 17 17 16 16 18 19 19 20 20 19 18 18 18 18 17 17 18 18 19 19 18 18 19 21 20 14 11 14 19 21 23
9 10 11 11 11 11 11 10 11 12 13 14 15 15 15 15 15 14 14 15 15 13 12 13 13 12 12 12 12 12 11 12 15 16 17 15 14 17 18 18 18 17 16 15 17 18 17 16 17 17 18 19 19 19 20 22 24 20 16 16 17 20 24
12 12 11 11 11 10 11 11 11 12 13 13 13 13 14 15 15 16 15 15 14 13 11 12 13 12 11 11 10 10 9 10 12 13 15 14 13 15 17 16 16 14 13 15 17 17 17 17 18 19 20 20 21 22 21 22 24 23 21 20 19 20 23
12 12 11 11 10 10 11 11 11 11 12 12 12 13 15 16 16 16 17 15 14 12 11 11 12 12 10 10 10 9 8 8 9 9 9 11 11 12 14 15 17 18 16 16 18 17 16 17 18 20 21 22 22 23 22 22 24 23 22 22 22 21 21
10 10 10 10 10 10 11 11 11 11 11 12 13 14 15 16 16 16 16 16 14 13 11 11 11 10 9 9 9 8 8 7 7 6 6 7 8 8 11 12 14 16 16 15 17 17 17 17 18 19 21 22 22 22 22 23 24 23 21 21 22 21 21
11 10 10 11 12 12 13 13 13 14 13 14 15 16 16 17 16 16 15 15 15 13 12 11 10 8 9 9 8 8 8 8 8 8 7 7 7 7 8 9 10 11 13 14 14 16 16 17 18 20 20 21 21 21 23 23 23 22 22 22 21 21 21
12 13 13 14 14 15 16 16 16 16 16 16 16 17 17 17 17 17 16 15 14 13 13 13 11 9 9 9 8 8 8 9 9 10 9 8 8 7 7 7 7 8 10 12 13 14 14 15 17 20 20 21 22 24 25 25 23 22 21 20 18 19 20
12 13 14 15 15 16 17 17 18 19 19 18 18 18 17 18 19 20 19 17 16 14 15 15 13 10 8 7 6 6 8 9 9 9 10 10 10 8 6 6 6 7 9 10 11 11 12 13 15 17 18 20 23 25 25 24 22 22 21 19 19 20 20
12 13 14 15 15 16 17 18 20 21 22 22 21 20 20 22 23 23 22 21 20 19 19 18 15 11 9 8 7 8 10 11 10 10 11 12 13 11 9 7 6 6 7 8 8 7 9 11 13 14 15 17 21 24 24 23 22 21 20 18 19 22 22
13 13 14 15 16 16 18 20 22 23 25 26 25 24 25 25 25 25 25 25 24 23 22 20 17 15 13 12 11 12 14 15 15 15 14 14 13 12 12 10 7 4 5 7 7 6 7 9 11 12 13 13 15 18 20 22 22 22 21 18 19 22 24
14 14 15 16 17 18 20 21 22 23 26 27 27 28 29 28 28 28 28 28 27 25 23 21 19 18 16 15 13 15 17 17 18 17 17 16 15 14 13 12 10 7 4 4 6 6 7 7 8 9 11 11 11 12 14 16 18 20 22 21 20 20 21
15 15 16 17 19 20 21 22 22 23 25 27 29 30 30 30 30 29 29 28 28 27 25 22 21 20 19 18 17 18 20 21 21 21 20 19 19 18 17 15 15 13 9 6 3 2 4 6 9 10 9 8 7 7 9 11 13 15 18 19 18 18 18
15 16 17 18 19 20 21 22 22 23 26 28 29 30 30 30 31 31 30 29 29 29 26 23 22 23 22 22 23 24 24 25 26 27 26 23 23 23 21 19 18 16 15 13 9 4 5 9 12 14 15 15 12 9 5 2 7 11 14 14 14 14 14
16 16 16 18 19 20 21 21 21 23 26 28 30 31 32 32 32 32 31 30 30 30 28 24 23 25 26 27 29 30 31 31 32 33 32 29 27 25 24 22 21 20 19 18 14 10 11 13 16 20 23 25 24 23 21 16 9 8 9 9 8 8 10
16 16 17 18 20 20 20 21 22 23 26 29 31 32 33 34 35 34 34 33 32 32 30 26 24 25 27 29 31 33 34 35 35 36 36 35 32 29 27 24 22 22 23 23 21 19 20 21 24 26 28 30 31 30 28 25 22 20 18 17 16 13 11
17 17 18 18 19 19 20 21 22 24 27 29 30 30 33 36 37 36 36 35 35 35 33 30 28 29 30 32 34 34 34 36 36 36 37 37 36 34 32 29 26 26 27 26 25 25 26 27 29 29 30 33 34 31 27 25 26 25 24 23 22 20 19
17 18 18 18 18 19 20 22 23 25 28 29 30 31 34 37 37 36 36 36 36 36 35 33 32 33 34 36 37 36 37 38 37 36 37 38 38 38 37 35 32 30 28 27 27 27 28 29 30 30 32 34 34 31 28 28 28 27 26 27 26 23 23
18 19 19 18 19 20 21 23 24 26 28 29 31 33 34 36 36 35 36 37 37 36 35 34 33 33 34 36 36 38 39 38 35 36 39 39 39 39 39 39 36 32 30 30 30 30 30 30 31 31 32 33 31 28 27 29 30 29 30 32 32 30 30
18 19 18 19 20 21 22 23 25 26 27 29 32 34 33 34 35 34 34 35 36 36 35 35 33 33 33 33 34 35 37 34 32 34 39 39 38 38 39 40 38 34 33 33 33 33 32 31 32 33 32 31 29 26 26 28 28 28 30 31 32 33 33
19 19 18 20 22 22 23 24 25 27 28 30 32 33 32 32 33 33 33 33 33 34 34 34 33 33 33 33 33 34 35 33 32 35 38 37 35 35 36 38 38 36 34 35 34 34 34 33 33 33 31 29 27 26 27 29 28 29 31 31 32 33 33
19 20 20 21 23 23 23 25 27 28 29 31 33 32 31 31 32 33 32 32 31 31 31 32 32 32 32 32 33 33 34 34 34 36 38 36 34 33 34 35 36 35 35 35 35 34 34 34 33 32 29 28 28 28 29 30 30 31 32 33 33 33 32
21 22 22 23 24 24 25 26 28 28 29 30 32 31 29 30 31 31 31 30 30 29 29 30 30 30 30 31 31 32 33 33 34 35 37 36 34 34 34 33 33 34 34 34 34 34 34 33 32 30 29 28 28 28 29 30 31 31 32 32 31 30 28

ECMWFFLT1_925_spd_123.txt.gz
Wind_Speed
4 4 4 4 3 2 1 2 3 4 5 5 5 4 4 4 4 4 4 3 3 4 5 6 7 7 8 9 10 11 11 13 13 15 16 15 14 15 17 18 19 21 22 19 15 12 7 6 7 10 15 19 22 24 25 23 22 23 24 25 22 19 20
4 4 4 3 2 2 1 2 4 6 7 7 7 7 5 5 5 4 4 4 4 5 6 6 8 8 9 10 10 11 12 13 14 15 16 17 18 17 17 18 18 18 19 20 20 16 11 9 8 5 7 12 16 22 26 24 24 24 23 27 28 22 20
5 4 3 2 2 2 2 3 5 6 8 8 8 8 6 5 6 5 5 5 6 6 6 7 8 9 10 11 11 12 13 14 16 17 17 17 19 20 20 20 18 16 15 15 16 16 13 11 9 6 6 8 10 16 24 26 25 25 22 24 29 27 22
5 5 4 4 3 3 3 4 5 6 7 7 6 6 5 5 6 6 6 6 6 7 7 8 9 10 11 11 12 13 13 14 15 16 17 18 19 20 22 23 21 20 17 15 14 16 13 10 9 8 9 12 12 14 20 25 26 25 22 22 27 31 27
6 6 5 5 4 4 4 6 7 7 7 7 6 6 6 7 7 6 7 7 8 8 8 9 9 10 11 11 12 13 13 13 14 15 17 18 19 20 20 20 22 23 21 18 17 16 15 14 12 8 9 12 12 14 18 20 23 26 26 23 25 30 31
7 6 6 5 4 5 6 8 10 9 8 9 9 9 9 9 9 8 9 9 9 9 9 9 10 10 10 11 11 12 12 13 14 16 19 19 19 20 20 20 21 23 22 20 20 18 16 16 14 10 10 11 9 11 15 15 18 22 26 26 25 27 29
6 5 5 5 5 6 7 9 9 9 9 10 10 10 10 10 10 10 11 10 9 9 9 9 9 9 10 11 11 12 13 14 16 17 19 20 20 20 20 20 20 21 21 20 19 20 18 17 15 11 9 9 10 12 13 14 16 16 20 25 27 27 28
5 5 5 5 5 6 7 8 8 8 9 9 9 10 12 13 13 12 12 12 10 9 9 9 9 10 11 12 12 13 13 14 15 17 19 19 18 18 19 18 18 19 20 20 20 21 21 20 21 18 12 7 7 9 9 11 15 16 18 20 24 29 29
5 5 5 5 5 6 7 7 8 8 9 9 11 12 14 14 13 13 13 12 12 11 11 10 11 11 12 13 13 13 14 14 15 16 18 18 17 17 18 17 17 18 18 19 20 21 21 21 23 24 21 13 8 6 6 8 10 13 19 18 20 26 29
5 5 5 5 5 6 6 7 8 8 9 11 12 13 13 12 13 13 13 12 12 12 12 12 12 11 12 13 13 14 15 15 15 16 16 17 17 17 18 17 17 17 17 17 19 20 20 21 23 25 25 23 17 9 6 8 8 9 17 20 18 21 26
5 5 5 5 6 7 7 8 8 9 10 11 11 12 12 12 12 12 12 11 11 11 12 12 12 11 12 13 14 14 15 16 15 14 14 16 16 16 16 16 16 16 17 17 18 19 19 20 22 23 24 25 24 17 9 7 7 9 15 19 18 18 22
5 5 6 6 7 8 8 8 8 9 9 9 10 11 12 12 11 11 11 11 12 11 11 11 11 11 13 14 15 15 14 16 15 12 12 13 14 14 14 15 15 15 15 16 16 17 19 19 21 22 22 22 25 25 19 10 5 9 16 19 18 18 19
6 7 7 7 8 9 8 7 8 9 8 8 9 10 11 11 11 11 10 11 12 12 13 12 11 11 13 13 14 14 13 15 15 13 12 12 12 13 14 14 15 14 14 14 15 16 17 18 18 20 21 22 24 26 25 17 7 7 15 19 17 17 18
7 7 8 8 8 8 8 7 8 8 8 8 9 9 10 10 10 10 11 11 13 12 12 12 12 11 12 12 13 13 13 13 13 13 13 13 13 13 13 14 14 13 13 13 14 15 16 15 16 18 19 20 22 23 24 21 12 7 12 17 17 16 17
8 8 8 8 8 8 7 7 8 8 8 8 8 9 10 10 9 10 11 11 12 13 12 11 11 11 12 12 12 12 12 12 11 11 12 12 13 12 12 13 13 13 11 12 13 14 14 14 14 15 18 19 20 22 23 23 18 10 11 16 17 15 16
9 9 8 8 8 8 7 7 7 7 7 6 7 8 9 9 9 10 10 11 12 13 12 10 9 11 12 11 12 12 12 12 11 10 10 10 11 11 10 11 11 11 10 10 11 12 13 13 13 14 16 19 19 20 23 23 19 12 11 14 16 15 16
9 9 8 8 8 8 8 7 6 6 6 6 7 8 8 8 9 10 11 12 13 13 13 12 9 10 12 12 12 12 12 11 11 10 9 10 10 10 9 9 10 10 10 10 10 11 11 12 13 14 15 17 18 19 21 22 20 15 11 12 15 16 17
9 9 8 8 9 8 8 7 6 6 6 7 8 8 8 8 9 11 13 14 16 17 17 16 14 12 12 12 12 12 12 12 11 10 10 10 11 11 10 10 10 11 11 10 10 9 10 11 12 14 15 16 17 17 18 21 21 18 15 13 15 17 17
8 8 9 9 8 8 7 7 6 6 7 7 8 9 10 10 11 13 15 17 18 20 20 19 17 15 14 12 12 11 11 11 11 11 11 12 12 12 12 11 11 11 11 11 10 9 9 9 11 13 15 16 16 15 16 20 20 18 18 16 15 18 18
8 8 9 8 8 7 7 7 6 6 7 8 9 11 13 14 15 17 18 19 20 20 19 18 16 15 14 13 12 12 11 10 11 12 12 13 14 14 13 13 13 13 12 11 10 9 9 9 10 10 12 13 14 15 15 18 18 17 17 15 14 18 19
8 9 9 9 8 7 8 8 8 8 9 10 11 13 16 17 19 20 21 21 21 20 20 19 18 16 14 13 13 13 13 13 13 13 14 14 14 16 15 14 14 15 14 12 11 10 9 9 10 10 10 11 13 15 15 15 15 15 15 13 13 15 16
9 9 10 9 9 9 9 9 9 10 11 12 13 15 17 19 20 21 21 22 22 22 22 23 20 16 14 14 15 15 16 16 16 16 17 17 16 16 17 16 16 17 15 11 9 8 8 8 9 9 9 9 10 13 15 15 15 15 14 15 15 15 15
9 10 10 10 9 9 10 11 13 13 13 14 15 17 19 21 21 20 20 22 23 24 25 23 19 16 15 16 17 18 19 19 19 19 18 19 19 19 19 18 18 19 18 15 12 10 8 6 5 5 6 6 6 9 11 13 15 15 14 14 14 14 14
9 9 10 11 10 11 13 17 20 20 19 19 20 20 20 21 21 19 19 20 22 25 26 22 19 18 17 18 20 21 22 22 22 22 20 19 19 19 20 19 19 21 21 20 19 17 15 14 12 9 7 6 5 3 4 5 9 13 14 13 11 12 13
9 9 11 12 12 16 20 23 24 24 23 22 22 20 18 18 18 18 18 20 22 24 25 23 22 21 20 21 22 23 24 24 24 24 22 20 20 19 20 20 21 22 21 20 20 21 21 21 20 18 16 13 12 10 7 6 4 5 9 11 11 12 13
10 10 11 12 15 20 24 24 25 26 24 20 19 18 16 16 17 16 18 20 22 24 25 25 25 24 23 24 25 24 23 24 24 24 23 22 22 22 22 23 24 24 22 19 19 20 21 23 24 25 24 22 21 19 15 12 10 5 2 4 5 6 7
10 10 12 16 20 22 23 24 25 25 23 19 16 17 17 17 17 17 17 19 21 25 26 25 26 26 26 27 27 23 21 21 22 23 23 22 22 23 24 23 23 25 25 23 21 18 18 20 24 27 30 32 32 30 26 22 19 14 10 6 5 4 2
10 11 15 20 21 21 23 25 26 26 23 18 16 18 18 18 18 17 17 18 22 26 25 24 26 28 27 28 26 22 19 20 21 22 23 23 23 22 21 21 23 26 28 28 25 21 18 19 22 24 27 30 33 36 37 33 29 24 21 18 15 13 9
11 13 18 21 21 21 24 24 25 27 26 23 22 21 18 20 23 22 20 21 21 22 23 24 26 28 28 28 28 26 22 20 22 23 23 25 26 25 24 25 28 30 30 29 28 27 25 25 25 25 25 24 27 33 37 36 33 31 28 26 23 19 16
11 14 18 19 18 20 22 23 23 25 27 28 28 25 21 23 27 28 27 26 22 20 22 24 25 27 28 29 32 32 27 23 22 24 25 26 30 33 33 32 33 33 31 29 29 29 29 28 26 26 24 23 27 31 33 34 36 35 33 32 29 26 22
11 13 14 13 15 18 21 24 24 26 28 28 27 26 26 27 29 30 30 30 26 24 24 23 23 26 28 29 31 32 30 30 27 25 27 31 33 35 36 34 34 34 32 30 29 29 30 27 25 23 22 23 27 29 29 32 36 37 37 38 36 34 32
12 14 14 14 18 21 23 24 25 27 29 28 26 26 27 27 28 29 30 30 30 28 27 24 23 24 25 28 29 26 26 29 28 24 26 30 33 35 35 34 33 33 32 31 30 31 32 29 25 22 20 22 25 25 26 31 35 36 38 41 40 40 40
12 15 18 20 22 24 24 25 26 27 28 28 27 27 27 28 28 29 29 30 30 30 29 27 24 24 24 27 29 27 24 23 23 22 24 25 27 32 34 34 33 31 31 32 31 31 32 31 27 23 21 22 23 21 22 29 34 35 37 39 39 40 41
14 18 21 23 24 25 25 26 27 27 26 27 28 28 27 28 29 28 28 29 29 29 29 28 26 26 26 27 28 30 28 22 18 20 24 25 25 28 31 33 33 30 30 31 31 31 32 32 32 30 28 27 26 23 22 25 28 30 33 34 35 36 37
16 21 23 23 24 25 25 26 27 26 26 27 29 27 25 24 24 24 26 27 27 28 28 28 28 27 27 27 28 30 31 27 23 23 25 25 24 25 29 32 33 31 30 31 31 32 33 33 34 34 32 31 32 31 29 27 25 25 25 26 26 28 30
19 23 24 24 25 24 24 25 26 26 25 25 26 24 21 20 20 20 21 22 24 25 26 27 28 27 27 28 28 29 31 30 30 31 30 25 24 26 29 32 33 33 33 34 34 34 34 35 35 35 34 33 34 33 32 31 28 25 24 24 23 23 23
22 24 23 24 25 24 24 25 25 25 24 22 21 20 17 17 17 18 18 18 19 21 23 25 26 27 27 27 28 29 30 31 32 34 33 30 29 30 31 31 31 32 33 35 35 36 36 36 35 35 34 35 35 33 29 28 27 26 26 25 24 23 21